GEONC-1 Weather Reports


time (UTC)temp
C
wind
direction
speed
KPH
gust
KPH
rain 1hr
cm
rain 24hr
cm
rain mn
cm
humidity
%
barometer
mb
20260510010520 26 0 0.0 0.0 0.00 0.00 0.00 64 999.7
20260510010420 26 0 0.0 0.0 0.00 0.00 0.00 64 999.7
20260510010320 26 0 0.0 0.0 0.00 0.00 0.00 65 999.6
20260510010220 26 0 0.0 0.0 0.00 0.00 0.00 65 999.7
20260510010120 26 0 0.0 0.0 0.00 0.00 0.00 65 999.6
20260510010020 26 0 0.0 0.0 0.00 0.00 0.00 65 999.7
20260510005920 26 0 0.0 0.0 0.00 0.00 0.00 65 999.7
20260510005821 26 0 0.0 0.0 0.00 0.00 0.00 65 999.7
20260510005721 26 0 0.0 0.0 0.00 0.00 0.00 65 999.7
20260510005621 26 0 0.0 0.0 0.00 0.00 0.00 64 999.7
20260510005521 26 0 0.0 0.0 0.00 0.00 0.00 65 999.8
20260510005421 26 0 0.0 0.0 0.00 0.00 0.00 65 999.7
20260510005321 26 0 0.0 0.0 0.00 0.00 0.00 64 999.7
20260510005221 26 0 0.0 0.0 0.00 0.00 0.00 64 999.7
20260510005121 26 0 0.0 0.0 0.00 0.00 0.00 64 999.7
20260510005021 26 0 0.0 0.0 0.00 0.00 0.00 63 999.7
20260510004921 26 0 0.0 0.0 0.00 0.00 0.00 65 999.7
20260510004821 26 0 0.0 0.0 0.00 0.00 0.00 64 999.7
20260510004721 26 0 0.0 0.0 0.00 0.00 0.00 65 999.7
20260510004621 26 0 0.0 0.0 0.00 0.00 0.00 65 999.7
20260510004521 26 0 0.0 0.0 0.00 0.00 0.00 65 999.8
20260510004421 26 0 0.0 0.0 0.00 0.00 0.00 65 999.8
20260510004321 26 0 0.0 0.0 0.00 0.00 0.00 65 999.8
20260510004222 26 0 0.0 0.0 0.00 0.00 0.00 65 999.8
20260510004122 26 0 0.0 0.0 0.00 0.00 0.00 65 999.8
20260510004022 26 0 0.0 0.0 0.00 0.00 0.00 66 999.9
20260510003922 26 0 0.0 0.0 0.00 0.00 0.00 64 999.9
20260510003822 26 0 0.0 0.0 0.00 0.00 0.00 64 999.9
20260510003722 26 0 0.0 0.0 0.00 0.00 0.00 65 999.9
20260510003622 26 0 0.0 0.0 0.00 0.00 0.00 65 999.9
20260510003522 26 0 0.0 0.0 0.00 0.00 0.00 66 999.9
20260510003422 26 0 0.0 0.0 0.00 0.00 0.00 65 999.9
20260510003322 26 0 0.0 0.0 0.00 0.00 0.00 65 999.9
20260510003222 26 0 0.0 0.0 0.00 0.00 0.00 66 999.9
20260510003122 26 0 0.0 0.0 0.00 0.00 0.00 65 1000.0
20260510003022 26 0 0.0 0.0 0.00 0.00 0.00 66 1000.0
20260510002922 26 0 0.0 0.0 0.00 0.00 0.00 66 1000.0
20260510002822 26 0 0.0 0.0 0.00 0.00 0.00 66 1000.1
20260510002722 26 0 0.0 0.0 0.00 0.00 0.00 67 1000.0
20260510002622 26 0 0.0 0.0 0.00 0.00 0.00 66 1000.1
20260510002522 26 0 0.0 0.0 0.00 0.00 0.00 66 1000.1
20260510002423 26 0 0.0 0.0 0.00 0.00 0.00 66 1000.1
20260510002323 26 0 0.0 0.0 0.00 0.00 0.00 66 1000.0
20260510002223 26 0 0.0 0.0 0.00 0.00 0.00 66 1000.1
20260510002123 26 0 0.0 0.0 0.00 0.00 0.00 66 1000.1
20260510002023 26 0 0.0 0.0 0.00 0.00 0.00 66 1000.1
20260510001923 26 0 0.0 0.0 0.00 0.00 0.00 66 1000.1
20260510001823 26 0 0.0 0.0 0.00 0.00 0.00 66 1000.1
20260510001723 26 0 0.0 0.0 0.00 0.00 0.00 67 1000.2
20260510001623 26 0 0.0 0.0 0.00 0.00 0.00 66 1000.2
20260510001523 26 0 0.0 0.0 0.00 0.00 0.00 67 1000.1
20260510001423 26 0 0.0 0.0 0.00 0.00 0.00 66 1000.1
20260510001323 26 0 0.0 0.0 0.00 0.00 0.00 65 1000.2
20260510001223 26 0 0.0 0.0 0.00 0.00 0.00 65 1000.2
20260510001123 26 0 0.0 0.0 0.00 0.00 0.00 66 1000.2
20260510001023 26 0 0.0 0.0 0.00 0.00 0.00 66 1000.3
20260510000923 26 0 0.0 0.0 0.00 0.00 0.00 67 1000.3
20260510000823 26 0 0.0 0.0 0.00 0.00 0.00 67 1000.2
20260510000724 26 0 0.0 0.0 0.00 0.00 0.00 66 1000.3
20260510000624 26 0 0.0 0.0 0.00 0.00 0.00 66 1000.2
20260510000524 26 0 0.0 0.0 0.00 0.00 0.00 65 1000.3
20260510000425 26 0 0.0 0.0 0.00 0.00 0.00 63 1000.3
20260510000326 26 0 0.0 0.0 0.00 0.00 0.00 65 1000.3
20260510000226 26 0 0.0 0.0 0.00 0.00 0.00 66 1000.4
20260510000124 26 0 0.0 0.0 0.00 0.00 0.00 66 1000.4
20260510000024 26 0 0.0 0.0 0.00 0.00 0.00 66 1000.4
20260509235924 26 0 0.0 0.0 0.00 0.00 0.00 68 1000.5
20260509235824 26 0 0.0 0.0 0.00 0.00 0.00 66 1000.5
20260509235724 26 0 0.0 0.0 0.00 0.00 0.00 66 1000.4
20260509235624 26 0 0.0 0.0 0.00 0.00 0.00 67 1000.6
20260509235524 26 0 0.0 0.0 0.00 0.00 0.00 67 1000.5
20260509235424 26 0 0.0 0.0 0.00 0.00 0.00 68 1000.5
20260509235324 26 0 0.0 0.0 0.00 0.00 0.00 67 1000.5
20260509235224 26 0 0.0 0.0 0.00 0.00 0.00 67 1000.5
20260509235124 26 0 0.0 0.0 0.00 0.00 0.00 67 1000.5
20260509235024 26 0 0.0 0.0 0.00 0.00 0.00 67 1000.6
20260509234925 26 0 0.0 0.0 0.00 0.00 0.00 65 1000.6
20260509234825 26 0 0.0 0.0 0.00 0.00 0.00 68 1000.6
20260509234725 26 0 0.0 0.0 0.00 0.00 0.00 65 1000.7
20260509234625 26 0 0.0 0.0 0.00 0.00 0.00 66 1000.7
20260509234525 26 0 0.0 0.0 0.00 0.00 0.00 66 1000.7
20260509234425 26 0 0.0 0.0 0.00 0.00 0.00 67 1000.7
20260509234325 26 0 0.0 0.0 0.00 0.00 0.00 66 1000.7
20260509234225 26 0 0.0 0.0 0.00 0.00 0.00 65 1000.7
20260509234125 26 0 0.0 0.0 0.00 0.00 0.00 68 1000.7
20260509234025 26 0 0.0 0.0 0.00 0.00 0.00 66 1000.7
20260509233925 26 0 0.0 0.0 0.00 0.00 0.00 68 1000.7
20260509233825 26 0 0.0 0.0 0.00 0.00 0.00 67 1000.6
20260509233725 26 0 0.0 0.0 0.00 0.00 0.00 66 1000.7
20260509233625 26 0 0.0 0.0 0.00 0.00 0.00 67 1000.7
20260509233526 26 0 0.0 0.0 0.00 0.00 0.00 68 1000.6
20260509233426 26 0 0.0 0.0 0.00 0.00 0.00 67 1000.6
20260509233326 26 0 0.0 0.0 0.00 0.00 0.00 68 1000.6
20260509233226 26 0 0.0 0.0 0.00 0.00 0.00 69 1000.6
20260509233126 26 0 0.0 0.0 0.00 0.00 0.00 68 1000.6
20260509233026 26 0 0.0 0.0 0.00 0.00 0.00 69 1000.6
20260509232926 26 0 0.0 0.0 0.00 0.00 0.00 68 1000.6
20260509232826 26 0 0.0 0.0 0.00 0.00 0.00 67 1000.7
20260509232726 26 0 0.0 0.0 0.00 0.00 0.00 69 1000.6
20260509232626 26 0 0.0 0.0 0.00 0.00 0.00 68 1000.6
20260509232526 26 0 0.0 0.0 0.00 0.00 0.00 67 1000.6
20260509232427 26 0 0.0 0.0 0.00 0.00 0.00 67 1000.7
20260509232326 26 0 0.0 0.0 0.00 0.00 0.00 68 1000.7
20260509232226 26 0 0.0 0.0 0.00 0.00 0.00 67 1000.7
20260509232126 26 0 0.0 0.0 0.00 0.00 0.00 67 1000.7
20260509232026 26 0 0.0 0.0 0.00 0.00 0.00 68 1000.6
20260509231926 26 0 0.0 0.0 0.00 0.00 0.00 66 1000.7
20260509231826 26 0 0.0 0.0 0.00 0.00 0.00 66 1000.6
20260509231727 26 0 0.0 0.0 0.00 0.00 0.00 67 1000.7
20260509231627 26 0 0.0 0.0 0.00 0.00 0.00 67 1000.7
20260509231527 26 0 0.0 0.0 0.00 0.00 0.00 68 1000.8
20260509231427 26 0 0.0 0.0 0.00 0.00 0.00 68 1000.7
20260509231327 26 0 0.0 0.0 0.00 0.00 0.00 68 1000.7
20260509231227 26 0 0.0 0.0 0.00 0.00 0.00 67 1000.7
20260509231127 26 0 0.0 0.0 0.00 0.00 0.00 67 1000.7
20260509231027 26 0 0.0 0.0 0.00 0.00 0.00 68 1000.8
20260509230927 26 0 0.0 0.0 0.00 0.00 0.00 68 1000.8
20260509230827 26 0 0.0 0.0 0.00 0.00 0.00 68 1000.8
20260509230727 26 0 0.0 0.0 0.00 0.00 0.00 67 1000.8
20260509230627 26 0 0.0 0.0 0.00 0.00 0.00 67 1000.9
20260509230527 26 0 0.0 0.0 0.00 0.00 0.00 67 1000.8
20260509230427 26 0 0.0 0.0 0.00 0.00 0.00 68 1000.8
20260509230327 26 0 0.0 0.0 0.00 0.00 0.00 67 1000.8
20260509230227 26 0 0.0 0.0 0.00 0.00 0.00 67 1000.8
20260509230127 26 0 0.0 0.0 0.00 0.00 0.00 67 1000.8
20260509230027 26 0 0.0 0.0 0.00 0.00 0.00 67 1000.8
20260509225927 26 0 0.0 0.0 0.00 0.00 0.00 67 1000.8
20260509225828 26 0 0.0 0.0 0.00 0.00 0.00 68 1000.7
20260509225728 26 0 0.0 0.0 0.00 0.00 0.00 68 1000.7
20260509225628 26 0 0.0 0.0 0.00 0.00 0.00 68 1000.7
20260509225528 26 0 0.0 0.0 0.00 0.00 0.00 67 1000.7
20260509225428 26 0 0.0 0.0 0.00 0.00 0.00 67 1000.7
20260509225328 26 0 0.0 0.0 0.00 0.00 0.00 67 1000.7
20260509225228 26 0 0.0 0.0 0.00 0.00 0.00 67 1000.7
20260509225128 26 0 0.0 0.0 0.00 0.00 0.00 68 1000.7
20260509225028 26 0 0.0 0.0 0.00 0.00 0.00 67 1000.7
20260509224928 26 0 0.0 0.0 0.00 0.00 0.00 67 1000.7
20260509224828 26 0 0.0 0.0 0.00 0.00 0.00 67 1000.7
20260509224728 26 0 0.0 0.0 0.00 0.00 0.00 67 1000.7
20260509224628 26 0 0.0 0.0 0.00 0.00 0.00 67 1000.8
20260509224528 26 0 0.0 0.0 0.00 0.00 0.00 67 1000.7
20260509224428 26 0 0.0 0.0 0.00 0.00 0.00 67 1000.7
20260509224329 26 0 0.0 0.0 0.00 0.00 0.00 68 1000.8
20260509224229 26 0 0.0 0.0 0.00 0.00 0.00 68 1000.8
20260509224129 26 0 0.0 0.0 0.00 0.00 0.00 67 1000.7
20260509224029 26 0 0.0 0.0 0.00 0.00 0.00 67 1000.7
20260509223929 26 0 0.0 0.0 0.00 0.00 0.00 67 1000.7
20260509223829 26 0 0.0 0.0 0.00 0.00 0.00 68 1000.7
20260509223729 26 0 0.0 0.0 0.00 0.00 0.00 67 1000.7
20260509223629 26 0 0.0 0.0 0.00 0.00 0.00 67 1000.7
20260509223530 26 0 0.0 0.0 0.00 0.00 0.00 68 1000.7
20260509223429 26 0 0.0 0.0 0.00 0.00 0.00 68 1000.7
20260509223329 26 0 0.0 0.0 0.00 0.00 0.00 68 1000.7
20260509223229 26 0 0.0 0.0 0.00 0.00 0.00 67 1000.7
20260509223129 26 0 0.0 0.0 0.00 0.00 0.00 67 1000.7
20260509223029 26 0 0.0 0.0 0.00 0.00 0.00 67 1000.7
20260509222930 26 0 0.0 0.0 0.00 0.00 0.00 67 1000.7
20260509222830 26 0 0.0 0.0 0.00 0.00 0.00 68 1000.7
20260509222730 26 0 0.0 0.0 0.00 0.00 0.00 68 1000.7
20260509222630 26 0 0.0 0.0 0.00 0.00 0.00 68 1000.7
20260509222530 26 0 0.0 0.0 0.00 0.00 0.00 67 1000.7
20260509222430 26 0 0.0 0.0 0.00 0.00 0.00 68 1000.7
20260509222330 26 0 0.0 0.0 0.00 0.00 0.00 67 1000.8
20260509222230 26 0 0.0 0.0 0.00 0.00 0.00 68 1000.7
20260509222130 26 0 0.0 0.0 0.00 0.00 0.00 68 1000.7
20260509222035 26 0 0.0 0.0 0.00 0.00 0.00 68 1000.7
20260509221930 26 0 0.0 0.0 0.00 0.00 0.00 68 1000.7
20260509221830 26 0 0.0 0.0 0.00 0.00 0.00 68 1000.7
20260509221730 26 0 0.0 0.0 0.00 0.00 0.00 68 1000.7
20260509221630 26 0 0.0 0.0 0.00 0.00 0.00 68 1000.7
20260509221531 26 0 0.0 0.0 0.00 0.00 0.00 68 1000.7
20260509221431 26 0 0.0 0.0 0.00 0.00 0.00 68 1000.7
20260509221331 26 0 0.0 0.0 0.00 0.00 0.00 68 1000.8
20260509221231 26 0 0.0 0.0 0.00 0.00 0.00 68 1000.7
20260509221131 26 0 0.0 0.0 0.00 0.00 0.00 68 1000.7
20260509221031 26 0 0.0 0.0 0.00 0.00 0.00 68 1000.7
20260509220931 26 0 0.0 0.0 0.00 0.00 0.00 68 1000.7
20260509220831 26 0 0.0 0.0 0.00 0.00 0.00 68 1000.7
20260509220731 26 0 0.0 0.0 0.00 0.00 0.00 68 1000.7
20260509220631 26 0 0.0 0.0 0.00 0.00 0.00 68 1000.6
20260509220531 26 0 0.0 0.0 0.00 0.00 0.00 68 1000.6
20260509220431 26 0 0.0 0.0 0.00 0.00 0.00 68 1000.6
20260509220331 26 0 0.0 0.0 0.00 0.00 0.00 68 1000.6
20260509220231 26 0 0.0 0.0 0.00 0.00 0.00 68 1000.6
20260509220131 26 0 0.0 0.0 0.00 0.00 0.00 68 1000.6
20260509220032 26 0 0.0 0.0 0.00 0.00 0.00 68 1000.6
20260509215932 26 0 0.0 0.0 0.00 0.00 0.00 68 1000.6
20260509215832 26 0 0.0 0.0 0.00 0.00 0.00 68 1000.5
20260509215732 26 0 0.0 0.0 0.00 0.00 0.00 68 1000.6
20260509215632 26 0 0.0 0.0 0.00 0.00 0.00 68 1000.6
20260509215532 26 0 0.0 0.0 0.00 0.00 0.00 68 1000.5
20260509215432 26 0 0.0 0.0 0.00 0.00 0.00 69 1000.6
20260509215332 26 0 0.0 0.0 0.00 0.00 0.00 68 1000.6
20260509215232 26 0 0.0 0.0 0.00 0.00 0.00 68 1000.5
20260509215132 26 0 0.0 0.0 0.00 0.00 0.00 68 1000.6
20260509215032 26 0 0.0 0.0 0.00 0.00 0.00 68 1000.5
20260509214932 26 0 0.0 0.0 0.00 0.00 0.00 68 1000.5
20260509214832 26 0 0.0 0.0 0.00 0.00 0.00 68 1000.5
20260509214732 26 0 0.0 0.0 0.00 0.00 0.00 68 1000.5
20260509214632 26 0 0.0 0.0 0.00 0.00 0.00 68 1000.5
20260509214532 26 0 0.0 0.0 0.00 0.00 0.00 68 1000.5
20260509214433 26 0 0.0 0.0 0.00 0.00 0.00 68 1000.5
20260509214333 26 0 0.0 0.0 0.00 0.00 0.00 68 1000.5
20260509214233 26 0 0.0 0.0 0.00 0.00 0.00 68 1000.5
20260509214133 26 0 0.0 0.0 0.00 0.00 0.00 68 1000.5
20260509214033 26 0 0.0 0.0 0.00 0.00 0.00 68 1000.5
20260509213933 26 0 0.0 0.0 0.00 0.00 0.00 68 1000.5
20260509213833 26 0 0.0 0.0 0.00 0.00 0.00 68 1000.5
20260509213733 26 0 0.0 0.0 0.00 0.00 0.00 68 1000.5
20260509213633 26 0 0.0 0.0 0.00 0.00 0.00 68 1000.5
20260509213533 26 0 0.0 0.0 0.00 0.00 0.00 69 1000.4
20260509213433 26 0 0.0 0.0 0.00 0.00 0.00 68 1000.5
20260509213333 26 0 0.0 0.0 0.00 0.00 0.00 69 1000.5
20260509213233 26 0 0.0 0.0 0.00 0.00 0.00 68 1000.5
20260509213133 26 0 0.0 0.0 0.00 0.00 0.00 68 1000.5
20260509213034 26 0 0.0 0.0 0.00 0.00 0.00 69 1000.5
20260509212934 26 0 0.0 0.0 0.00 0.00 0.00 69 1000.4
20260509212834 26 0 0.0 0.0 0.00 0.00 0.00 69 1000.4
20260509212734 26 0 0.0 0.0 0.00 0.00 0.00 68 1000.4
20260509212634 26 0 0.0 0.0 0.00 0.00 0.00 69 1000.4
20260509212534 26 0 0.0 0.0 0.00 0.00 0.00 69 1000.3
20260509212434 26 0 0.0 0.0 0.00 0.00 0.00 69 1000.4
20260509212334 26 0 0.0 0.0 0.00 0.00 0.00 69 1000.3
20260509212234 26 0 0.0 0.0 0.00 0.00 0.00 69 1000.3
20260509212134 26 0 0.0 0.0 0.00 0.00 0.00 69 1000.3
20260509212034 26 0 0.0 0.0 0.00 0.00 0.00 69 1000.3
20260509211934 26 0 0.0 0.0 0.00 0.00 0.00 69 1000.3
20260509211834 26 0 0.0 0.0 0.00 0.00 0.00 69 1000.3
20260509211734 26 0 0.0 0.0 0.00 0.00 0.00 69 1000.3
20260509211634 26 0 0.0 0.0 0.00 0.00 0.00 69 1000.2
20260509211534 26 0 0.0 0.0 0.00 0.00 0.00 69 1000.2
20260509211435 26 0 0.0 0.0 0.00 0.00 0.00 69 1000.3
20260509211335 26 0 0.0 0.0 0.00 0.00 0.00 69 1000.3
20260509211235 26 0 0.0 0.0 0.00 0.00 0.00 69 1000.2
20260509211135 26 0 0.0 0.0 0.00 0.00 0.00 69 1000.2
20260509211035 26 0 0.0 0.0 0.00 0.00 0.00 69 1000.2
20260509210935 26 0 0.0 0.0 0.00 0.00 0.00 69 1000.3
20260509210835 26 0 0.0 0.0 0.00 0.00 0.00 68 1000.2
20260509210735 26 0 0.0 0.0 0.00 0.00 0.00 69 1000.1
20260509210635 26 0 0.0 0.0 0.00 0.00 0.00 69 1000.2
20260509210535 26 0 0.0 0.0 0.00 0.00 0.00 69 1000.2
20260509210435 26 0 0.0 0.0 0.00 0.00 0.00 69 1000.1
20260509210335 26 0 0.0 0.0 0.00 0.00 0.00 69 1000.1
20260509210235 26 0 0.0 0.0 0.00 0.00 0.00 69 1000.2
20260509210135 26 0 0.0 0.0 0.00 0.00 0.00 69 1000.1
20260509210035 26 0 0.0 0.0 0.00 0.00 0.00 69 1000.1
20260509205935 26 0 0.0 0.0 0.00 0.00 0.00 69 1000.1
20260509205836 26 0 0.0 0.0 0.00 0.00 0.00 69 1000.2
20260509205736 26 0 0.0 0.0 0.00 0.00 0.00 69 1000.2
20260509205636 26 0 0.0 0.0 0.00 0.00 0.00 69 1000.1
20260509205536 26 0 0.0 0.0 0.00 0.00 0.00 69 1000.1
20260509205436 26 0 0.0 0.0 0.00 0.00 0.00 69 1000.1
20260509205336 26 0 0.0 0.0 0.00 0.00 0.00 69 1000.1
20260509205236 26 0 0.0 0.0 0.00 0.00 0.00 69 1000.2
20260509205136 26 0 0.0 0.0 0.00 0.00 0.00 69 1000.1
20260509205036 26 0 0.0 0.0 0.00 0.00 0.00 69 1000.1
20260509204936 26 0 0.0 0.0 0.00 0.00 0.00 69 1000.1
20260509204836 26 0 0.0 0.0 0.00 0.00 0.00 69 1000.1
20260509204736 26 0 0.0 0.0 0.00 0.00 0.00 69 1000.0
20260509204636 26 0 0.0 0.0 0.00 0.00 0.00 69 1000.0
20260509204536 26 0 0.0 0.0 0.00 0.00 0.00 69 999.9
20260509204436 26 0 0.0 0.0 0.00 0.00 0.00 69 1000.0
20260509204337 26 0 0.0 0.0 0.00 0.00 0.00 69 1000.0
20260509204237 26 0 0.0 0.0 0.00 0.00 0.00 69 1000.0
20260509204137 26 0 0.0 0.0 0.00 0.00 0.00 69 1000.0
20260509204037 26 0 0.0 0.0 0.00 0.00 0.00 69 1000.0
20260509203937 26 0 0.0 0.0 0.00 0.00 0.00 69 1000.0
20260509203837 26 0 0.0 0.0 0.00 0.00 0.00 69 1000.0
20260509203737 26 0 0.0 0.0 0.00 0.00 0.00 69 1000.0
20260509203637 26 0 0.0 0.0 0.00 0.00 0.00 69 999.9
20260509203537 26 0 0.0 0.0 0.00 0.00 0.00 69 999.9
20260509203438 26 0 0.0 0.0 0.00 0.00 0.00 69 1000.0
20260509203337 26 0 0.0 0.0 0.00 0.00 0.00 69 999.9
20260509203237 26 0 0.0 0.0 0.00 0.00 0.00 69 999.9
20260509203137 26 0 0.0 0.0 0.00 0.00 0.00 69 999.9
20260509203038 26 0 0.0 0.0 0.00 0.00 0.00 69 999.9
20260509202937 26 0 0.0 0.0 0.00 0.00 0.00 69 999.9
20260509202838 26 0 0.0 0.0 0.00 0.00 0.00 69 999.9
20260509202738 26 0 0.0 0.0 0.00 0.00 0.00 69 999.9
20260509202638 26 0 0.0 0.0 0.00 0.00 0.00 69 999.9
20260509202538 26 0 0.0 0.0 0.00 0.00 0.00 69 999.9
20260509202438 26 0 0.0 0.0 0.00 0.00 0.00 69 999.9
20260509202338 26 0 0.0 0.0 0.00 0.00 0.00 69 999.9
20260509202238 26 0 0.0 0.0 0.00 0.00 0.00 69 999.8
20260509202138 26 0 0.0 0.0 0.00 0.00 0.00 69 999.9
20260509202038 26 0 0.0 0.0 0.00 0.00 0.00 69 999.9
20260509201938 26 0 0.0 0.0 0.00 0.00 0.00 69 999.9
20260509201838 26 0 0.0 0.0 0.00 0.00 0.00 69 999.9
20260509201738 26 0 0.0 0.0 0.00 0.00 0.00 69 999.9
20260509201638 26 0 0.0 0.0 0.00 0.00 0.00 69 999.9
20260509201538 26 0 0.0 0.0 0.00 0.00 0.00 69 999.8
20260509201438 26 0 0.0 0.0 0.00 0.00 0.00 69 999.8
20260509201338 26 0 0.0 0.0 0.00 0.00 0.00 69 999.8
20260509201239 26 0 0.0 0.0 0.00 0.00 0.00 69 999.8
20260509201139 26 0 0.0 0.0 0.00 0.00 0.00 69 999.8
20260509201039 26 0 0.0 0.0 0.00 0.00 0.00 69 999.8
20260509200939 26 0 0.0 0.0 0.00 0.00 0.00 69 999.8
20260509200839 26 0 0.0 0.0 0.00 0.00 0.00 69 999.7
20260509200739 26 0 0.0 0.0 0.00 0.00 0.00 69 999.7
20260509200639 26 0 0.0 0.0 0.00 0.00 0.00 69 999.7
20260509200539 26 0 0.0 0.0 0.00 0.00 0.00 69 999.7
20260509200439 26 0 0.0 0.0 0.00 0.00 0.00 69 999.7
20260509200339 26 0 0.0 0.0 0.00 0.00 0.00 69 999.7
20260509200239 26 0 0.0 0.0 0.00 0.00 0.00 69 999.7
20260509200139 26 0 0.0 0.0 0.00 0.00 0.00 69 999.7
20260509200039 26 0 0.0 0.0 0.00 0.00 0.00 69 999.6
20260509195939 26 0 0.0 0.0 0.00 0.00 0.00 69 999.7
20260509195840 26 0 0.0 0.0 0.00 0.00 0.00 69 999.6
20260509195740 26 0 0.0 0.0 0.00 0.00 0.00 69 999.6
20260509195640 26 0 0.0 0.0 0.00 0.00 0.00 69 999.6
20260509195540 26 0 0.0 0.0 0.00 0.00 0.00 69 999.6
20260509195440 26 0 0.0 0.0 0.00 0.00 0.00 69 999.6
20260509195340 26 0 0.0 0.0 0.00 0.00 0.00 69 999.6
20260509195240 26 0 0.0 0.0 0.00 0.00 0.00 69 999.6
20260509195140 26 0 0.0 0.0 0.00 0.00 0.00 69 999.6
20260509195040 26 0 0.0 0.0 0.00 0.00 0.00 69 999.6
20260509194940 26 0 0.0 0.0 0.00 0.00 0.00 69 999.7
20260509194840 26 0 0.0 0.0 0.00 0.00 0.00 69 999.6
20260509194740 26 0 0.0 0.0 0.00 0.00 0.00 69 999.6
20260509194640 26 0 0.0 0.0 0.00 0.00 0.00 69 999.6
20260509194540 26 0 0.0 0.0 0.00 0.00 0.00 69 999.6
20260509194440 26 0 0.0 0.0 0.00 0.00 0.00 69 999.6
20260509194340 26 0 0.0 0.0 0.00 0.00 0.00 69 999.6
20260509194240 26 0 0.0 0.0 0.00 0.00 0.00 69 999.5
20260509194141 26 0 0.0 0.0 0.00 0.00 0.00 69 999.6
20260509194041 26 0 0.0 0.0 0.00 0.00 0.00 69 999.5
20260509193941 26 0 0.0 0.0 0.00 0.00 0.00 69 999.6
20260509193841 26 0 0.0 0.0 0.00 0.00 0.00 69 999.5
20260509193741 26 0 0.0 0.0 0.00 0.00 0.00 69 999.4
20260509193641 26 0 0.0 0.0 0.00 0.00 0.00 69 999.5
20260509193541 26 0 0.0 0.0 0.00 0.00 0.00 69 999.5
20260509193441 26 0 0.0 0.0 0.00 0.00 0.00 69 999.4
20260509193341 26 0 0.0 0.0 0.00 0.00 0.00 69 999.3
20260509193241 26 0 0.0 0.0 0.00 0.00 0.00 69 999.4
20260509193141 26 0 0.0 0.0 0.00 0.00 0.00 69 999.4
20260509193041 26 0 0.0 0.0 0.00 0.00 0.00 69 999.3
20260509192941 26 0 0.0 0.0 0.00 0.00 0.00 69 999.3
20260509192841 26 0 0.0 0.0 0.00 0.00 0.00 69 999.3
20260509192741 26 0 0.0 0.0 0.00 0.00 0.00 69 999.3
20260509192641 26 0 0.0 0.0 0.00 0.00 0.00 69 999.3
20260509192541 26 0 0.0 0.0 0.00 0.00 0.00 69 999.3
20260509192441 26 0 0.0 0.0 0.00 0.00 0.00 69 999.2
20260509192342 26 0 0.0 0.0 0.00 0.00 0.00 69 999.2
20260509192242 26 0 0.0 0.0 0.00 0.00 0.00 69 999.2
20260509192142 26 0 0.0 0.0 0.00 0.00 0.00 69 999.2
20260509192042 26 0 0.0 0.0 0.00 0.00 0.00 69 999.2
20260509191942 26 0 0.0 0.0 0.00 0.00 0.00 69 999.2
20260509191842 26 0 0.0 0.0 0.00 0.00 0.00 69 999.2
20260509191742 26 0 0.0 0.0 0.00 0.00 0.00 69 999.2
20260509191642 26 0 0.0 0.0 0.00 0.00 0.00 69 999.1
20260509191542 26 0 0.0 0.0 0.00 0.00 0.00 69 999.2
20260509191442 26 0 0.0 0.0 0.00 0.00 0.00 69 999.1
20260509191342 26 0 0.0 0.0 0.00 0.00 0.00 69 999.1
20260509191242 26 0 0.0 0.0 0.00 0.00 0.00 69 999.1
20260509191142 26 0 0.0 0.0 0.00 0.00 0.00 69 999.1
20260509191042 26 0 0.0 0.0 0.00 0.00 0.00 69 999.1
20260509190942 26 0 0.0 0.0 0.00 0.00 0.00 69 999.1
20260509190842 26 0 0.0 0.0 0.00 0.00 0.00 69 999.1
20260509190742 26 0 0.0 0.0 0.00 0.00 0.00 69 999.1
20260509190643 26 0 0.0 0.0 0.00 0.00 0.00 69 999.1
20260509190543 26 0 0.0 0.0 0.00 0.00 0.00 69 999.0
20260509190443 26 0 0.0 0.0 0.00 0.00 0.00 69 999.0
20260509190343 26 0 0.0 0.0 0.00 0.00 0.00 69 999.1
20260509190243 26 0 0.0 0.0 0.00 0.00 0.00 69 999.0
20260509190143 26 0 0.0 0.0 0.00 0.00 0.00 69 999.0
20260509190043 26 0 0.0 0.0 0.00 0.00 0.00 69 999.0
20260509185943 26 0 0.0 0.0 0.00 0.00 0.00 69 999.0
20260509185843 26 0 0.0 0.0 0.00 0.00 0.00 69 998.9
20260509185743 26 0 0.0 0.0 0.00 0.00 0.00 69 999.0
20260509185643 26 0 0.0 0.0 0.00 0.00 0.00 69 998.9
20260509185543 26 0 0.0 0.0 0.00 0.00 0.00 69 999.0
20260509185443 26 0 0.0 0.0 0.00 0.00 0.00 69 998.9
20260509185343 26 0 0.0 0.0 0.00 0.00 0.00 69 998.9
20260509185243 26 0 0.0 0.0 0.00 0.00 0.00 69 998.9
20260509185144 26 0 0.0 0.0 0.00 0.00 0.00 69 998.9
20260509185044 26 0 0.0 0.0 0.00 0.00 0.00 69 998.9
20260509184944 26 0 0.0 0.0 0.00 0.00 0.00 69 998.9
20260509184844 26 0 0.0 0.0 0.00 0.00 0.00 69 998.9
20260509184744 26 0 0.0 0.0 0.00 0.00 0.00 69 998.9
20260509184644 26 0 0.0 0.0 0.00 0.00 0.00 69 998.8
20260509184544 26 0 0.0 0.0 0.00 0.00 0.00 69 998.8
20260509184444 26 0 0.0 0.0 0.00 0.00 0.00 69 998.8
20260509184344 26 0 0.0 0.0 0.00 0.00 0.00 69 998.7
20260509184244 26 0 0.0 0.0 0.00 0.00 0.00 69 998.7
20260509184144 26 0 0.0 0.0 0.00 0.00 0.00 69 998.8
20260509184044 26 0 0.0 0.0 0.00 0.00 0.00 69 998.8
20260509183944 26 0 0.0 0.0 0.00 0.00 0.00 69 998.8
20260509183844 26 0 0.0 0.0 0.00 0.00 0.00 69 998.8
20260509183745 26 0 0.0 0.0 0.00 0.00 0.00 69 998.7
20260509183645 26 0 0.0 0.0 0.00 0.00 0.00 69 998.7
20260509183545 26 0 0.0 0.0 0.00 0.00 0.00 69 998.7
20260509183445 26 0 0.0 0.0 0.00 0.00 0.00 69 998.7
20260509183345 26 0 0.0 0.0 0.00 0.00 0.00 69 998.7
20260509183245 26 0 0.0 0.0 0.00 0.00 0.00 69 998.7
20260509183145 26 0 0.0 0.0 0.00 0.00 0.00 69 998.6
20260509183045 26 0 0.0 0.0 0.00 0.00 0.00 69 998.6
20260509182945 26 0 0.0 0.0 0.00 0.00 0.00 69 998.6
20260509182845 26 0 0.0 0.0 0.00 0.00 0.00 69 998.6
20260509182745 26 0 0.0 0.0 0.00 0.00 0.00 69 998.6
20260509182646 26 0 0.0 0.0 0.00 0.00 0.00 69 998.5
20260509182546 26 0 0.0 0.0 0.00 0.00 0.00 69 998.6
20260509182446 26 0 0.0 0.0 0.00 0.00 0.00 69 998.6
20260509182346 26 0 0.0 0.0 0.00 0.00 0.00 69 998.5
20260509182246 26 0 0.0 0.0 0.00 0.00 0.00 69 998.5
20260509182146 26 0 0.0 0.0 0.00 0.00 0.00 69 998.5
20260509182046 26 0 0.0 0.0 0.00 0.00 0.00 69 998.5
20260509181946 26 0 0.0 0.0 0.00 0.00 0.00 69 998.5
20260509181846 26 0 0.0 0.0 0.00 0.00 0.00 69 998.4
20260509181746 26 0 0.0 0.0 0.00 0.00 0.00 69 998.4
20260509181646 26 0 0.0 0.0 0.00 0.00 0.00 69 998.5
20260509181546 26 0 0.0 0.0 0.00 0.00 0.00 69 998.4
20260509181446 26 0 0.0 0.0 0.00 0.00 0.00 69 998.4
20260509181346 26 0 0.0 0.0 0.00 0.00 0.00 69 998.4
20260509181246 26 0 0.0 0.0 0.00 0.00 0.00 69 998.5
20260509181147 26 0 0.0 0.0 0.00 0.00 0.00 69 998.4
20260509181047 26 0 0.0 0.0 0.00 0.00 0.00 69 998.4
20260509180947 26 0 0.0 0.0 0.00 0.00 0.00 69 998.4
20260509180847 26 0 0.0 0.0 0.00 0.00 0.00 69 998.3
20260509180747 26 0 0.0 0.0 0.00 0.00 0.00 69 998.3
20260509180647 26 0 0.0 0.0 0.00 0.00 0.00 69 998.3
20260509180547 26 0 0.0 0.0 0.00 0.00 0.00 69 998.3
20260509180447 26 0 0.0 0.0 0.00 0.00 0.00 69 998.3
20260509180347 26 0 0.0 0.0 0.00 0.00 0.00 69 998.3
20260509180247 26 0 0.0 0.0 0.00 0.00 0.00 69 998.3
20260509180147 26 0 0.0 0.0 0.00 0.00 0.00 69 998.3
20260509180048 26 0 0.0 0.0 0.00 0.00 0.00 69 998.3
20260509175947 26 0 0.0 0.0 0.00 0.00 0.00 69 998.3
20260509175847 26 0 0.0 0.0 0.00 0.00 0.00 69 998.2
20260509175747 26 0 0.0 0.0 0.00 0.00 0.00 69 998.3
20260509175647 26 0 0.0 0.0 0.00 0.00 0.00 69 998.3
20260509175547 26 0 0.0 0.0 0.00 0.00 0.00 69 998.2
20260509175447 26 0 0.0 0.0 0.00 0.00 0.00 69 998.2
20260509175348 26 0 0.0 0.0 0.00 0.00 0.00 69 998.2
20260509175248 26 0 0.0 0.0 0.00 0.00 0.00 69 998.2
20260509175148 26 0 0.0 0.0 0.00 0.00 0.00 69 998.2
20260509175048 26 0 0.0 0.0 0.00 0.00 0.00 69 998.2
20260509174948 26 0 0.0 0.0 0.00 0.00 0.00 69 998.2
20260509174848 26 0 0.0 0.0 0.00 0.00 0.00 69 998.2
20260509174748 26 0 0.0 0.0 0.00 0.00 0.00 69 998.2
20260509174648 26 0 0.0 0.0 0.00 0.00 0.00 69 998.2
20260509174548 26 0 0.0 0.0 0.00 0.00 0.00 69 998.2
20260509174448 26 0 0.0 0.0 0.00 0.00 0.00 69 998.2
20260509174348 26 0 0.0 0.0 0.00 0.00 0.00 69 998.2
20260509174248 26 0 0.0 0.0 0.00 0.00 0.00 69 998.2
20260509174148 26 0 0.0 0.0 0.00 0.00 0.00 69 998.1
20260509174049 26 0 0.0 0.0 0.00 0.00 0.00 69 998.1
20260509173949 26 0 0.0 0.0 0.00 0.00 0.00 69 998.1
20260509173849 26 0 0.0 0.0 0.00 0.00 0.00 69 998.2
20260509173749 26 0 0.0 0.0 0.00 0.00 0.00 69 998.1
20260509173649 26 0 0.0 0.0 0.00 0.00 0.00 70 998.1
20260509173549 26 0 0.0 0.0 0.00 0.00 0.00 69 998.1
20260509173449 26 0 0.0 0.0 0.00 0.00 0.00 69 998.1
20260509173349 26 0 0.0 0.0 0.00 0.00 0.00 70 998.1
20260509173249 26 0 0.0 0.0 0.00 0.00 0.00 69 998.2
20260509173149 26 0 0.0 0.0 0.00 0.00 0.00 70 998.1
20260509173049 26 0 0.0 0.0 0.00 0.00 0.00 70 998.1
20260509172949 26 0 0.0 0.0 0.00 0.00 0.00 69 998.1
20260509172849 26 0 0.0 0.0 0.00 0.00 0.00 69 998.1
20260509172750 26 0 0.0 0.0 0.00 0.00 0.00 69 998.1
20260509172649 26 0 0.0 0.0 0.00 0.00 0.00 70 998.1
20260509172549 26 0 0.0 0.0 0.00 0.00 0.00 69 998.1
20260509172450 26 0 0.0 0.0 0.00 0.00 0.00 69 998.1
20260509172350 26 0 0.0 0.0 0.00 0.00 0.00 70 998.1
20260509172250 26 0 0.0 0.0 0.00 0.00 0.00 70 998.1
20260509172150 26 0 0.0 0.0 0.00 0.00 0.00 69 998.1
20260509172050 26 0 0.0 0.0 0.00 0.00 0.00 70 998.1
20260509171950 26 0 0.0 0.0 0.00 0.00 0.00 69 998.1
20260509171850 26 0 0.0 0.0 0.00 0.00 0.00 69 998.1
20260509171750 26 0 0.0 0.0 0.00 0.00 0.00 69 998.1
20260509171650 26 0 0.0 0.0 0.00 0.00 0.00 69 998.1
20260509171550 26 0 0.0 0.0 0.00 0.00 0.00 70 998.1
20260509171450 26 0 0.0 0.0 0.00 0.00 0.00 69 998.1
20260509171350 26 0 0.0 0.0 0.00 0.00 0.00 70 998.1
20260509171250 26 0 0.0 0.0 0.00 0.00 0.00 70 998.1
20260509171150 26 0 0.0 0.0 0.00 0.00 0.00 70 998.1
20260509171050 26 0 0.0 0.0 0.00 0.00 0.00 70 998.2
20260509170951 26 0 0.0 0.0 0.00 0.00 0.00 70 998.2
20260509170851 26 0 0.0 0.0 0.00 0.00 0.00 70 998.2
20260509170751 26 0 0.0 0.0 0.00 0.00 0.00 70 998.2
20260509170651 26 0 0.0 0.0 0.00 0.00 0.00 69 998.1
20260509170551 26 0 0.0 0.0 0.00 0.00 0.00 69 998.1
20260509170451 26 0 0.0 0.0 0.00 0.00 0.00 69 998.2
20260509170351 26 0 0.0 0.0 0.00 0.00 0.00 69 998.2
20260509170251 26 0 0.0 0.0 0.00 0.00 0.00 69 998.2
20260509170151 26 0 0.0 0.0 0.00 0.00 0.00 70 998.2
20260509170051 26 0 0.0 0.0 0.00 0.00 0.00 70 998.2
20260509165951 26 0 0.0 0.0 0.00 0.00 0.00 69 998.2
20260509165851 26 0 0.0 0.0 0.00 0.00 0.00 70 998.2
20260509165751 26 0 0.0 0.0 0.00 0.00 0.00 70 998.2
20260509165651 26 0 0.0 0.0 0.00 0.00 0.00 70 998.2
20260509165551 26 0 0.0 0.0 0.00 0.00 0.00 69 998.2
20260509165452 26 0 0.0 0.0 0.00 0.00 0.00 69 998.1
20260509165352 26 0 0.0 0.0 0.00 0.00 0.00 70 998.1
20260509165252 26 0 0.0 0.0 0.00 0.00 0.00 70 998.1
20260509165152 26 0 0.0 0.0 0.00 0.00 0.00 70 998.1
20260509165052 26 0 0.0 0.0 0.00 0.00 0.00 70 998.1
20260509164952 26 0 0.0 0.0 0.00 0.00 0.00 69 998.1
20260509164852 26 0 0.0 0.0 0.00 0.00 0.00 69 998.1
20260509164752 26 0 0.0 0.0 0.00 0.00 0.00 69 998.1
20260509164652 26 0 0.0 0.0 0.00 0.00 0.00 69 998.1
20260509164553 26 0 0.0 0.0 0.00 0.00 0.00 69 998.1
20260509164452 26 0 0.0 0.0 0.00 0.00 0.00 70 998.2
20260509164353 26 0 0.0 0.0 0.00 0.00 0.00 70 998.1
20260509164252 26 0 0.0 0.0 0.00 0.00 0.00 69 998.1
20260509164152 26 0 0.0 0.0 0.00 0.00 0.00 69 998.1
20260509164052 26 0 0.0 0.0 0.00 0.00 0.00 69 998.1
20260509163952 26 0 0.0 0.0 0.00 0.00 0.00 69 998.1
20260509163852 26 0 0.0 0.0 0.00 0.00 0.00 69 998.1
20260509163752 26 0 0.0 0.0 0.00 0.00 0.00 69 998.1
20260509163653 26 0 0.0 0.0 0.00 0.00 0.00 69 998.1
20260509163553 26 0 0.0 0.0 0.00 0.00 0.00 69 998.1
20260509163453 26 0 0.0 0.0 0.00 0.00 0.00 69 998.1
20260509163353 26 0 0.0 0.0 0.00 0.00 0.00 69 998.1
20260509163253 27 0 0.0 0.0 0.00 0.00 0.00 70 998.1
20260509163153 27 0 0.0 0.0 0.00 0.00 0.00 69 998.1
20260509163053 26 0 0.0 0.0 0.00 0.00 0.00 69 998.1
20260509162953 27 0 0.0 0.0 0.00 0.00 0.00 69 998.1
20260509162853 27 0 0.0 0.0 0.00 0.00 0.00 69 998.1
20260509162753 27 0 0.0 0.0 0.00 0.00 0.00 69 998.1
20260509162653 27 0 0.0 0.0 0.00 0.00 0.00 70 998.1
20260509162553 27 0 0.0 0.0 0.00 0.00 0.00 69 998.1
20260509162453 27 0 0.0 0.0 0.00 0.00 0.00 69 998.1
20260509162353 27 0 0.0 0.0 0.00 0.00 0.00 69 998.1
20260509162253 27 0 0.0 0.0 0.00 0.00 0.00 69 998.0
20260509162153 27 0 0.0 0.0 0.00 0.00 0.00 69 998.1
20260509162054 27 0 0.0 0.0 0.00 0.00 0.00 69 998.0
20260509161954 27 0 0.0 0.0 0.00 0.00 0.00 69 998.1
20260509161854 27 0 0.0 0.0 0.00 0.00 0.00 69 998.1
20260509161754 27 0 0.0 0.0 0.00 0.00 0.00 69 998.1
20260509161654 27 0 0.0 0.0 0.00 0.00 0.00 69 998.1
20260509161554 27 0 0.0 0.0 0.00 0.00 0.00 70 998.1
20260509161454 27 0 0.0 0.0 0.00 0.00 0.00 69 998.1
20260509161354 27 0 0.0 0.0 0.00 0.00 0.00 69 998.1
20260509161254 27 0 0.0 0.0 0.00 0.00 0.00 69 998.1
20260509161154 27 0 0.0 0.0 0.00 0.00 0.00 69 998.1
20260509161055 27 0 0.0 0.0 0.00 0.00 0.00 69 998.0
20260509160954 27 0 0.0 0.0 0.00 0.00 0.00 69 998.1
20260509160854 27 0 0.0 0.0 0.00 0.00 0.00 69 998.0
20260509160754 27 0 0.0 0.0 0.00 0.00 0.00 70 998.0
20260509160654 27 0 0.0 0.0 0.00 0.00 0.00 69 998.1
20260509160554 27 0 0.0 0.0 0.00 0.00 0.00 69 998.0
20260509160454 27 0 0.0 0.0 0.00 0.00 0.00 70 998.0
20260509160355 27 0 0.0 0.0 0.00 0.00 0.00 69 998.1
20260509160255 27 0 0.0 0.0 0.00 0.00 0.00 70 998.1
20260509160155 27 0 0.0 0.0 0.00 0.00 0.00 70 998.1
20260509160055 27 0 0.0 0.0 0.00 0.00 0.00 69 998.1
20260509155956 27 0 0.0 0.0 0.00 0.00 0.00 69 998.1
20260509155855 27 0 0.0 0.0 0.00 0.00 0.00 69 998.1
20260509155755 27 0 0.0 0.0 0.00 0.00 0.00 69 998.1
20260509155655 27 0 0.0 0.0 0.00 0.00 0.00 69 998.1
20260509155555 27 0 0.0 0.0 0.00 0.00 0.00 69 998.1
20260509155455 27 0 0.0 0.0 0.00 0.00 0.00 69 998.0
20260509155355 27 0 0.0 0.0 0.00 0.00 0.00 69 998.0
20260509155255 27 0 0.0 0.0 0.00 0.00 0.00 69 998.0
20260509155155 27 0 0.0 0.0 0.00 0.00 0.00 69 998.0
20260509155055 27 0 0.0 0.0 0.00 0.00 0.00 69 998.1
20260509154955 27 0 0.0 0.0 0.00 0.00 0.00 69 998.0
20260509154855 27 0 0.0 0.0 0.00 0.00 0.00 69 998.0
20260509154755 27 0 0.0 0.0 0.00 0.00 0.00 69 998.0
20260509154656 27 0 0.0 0.0 0.00 0.00 0.00 69 998.0
20260509154556 27 0 0.0 0.0 0.00 0.00 0.00 69 998.0
20260509154456 27 0 0.0 0.0 0.00 0.00 0.00 69 998.0
20260509154356 27 0 0.0 0.0 0.00 0.00 0.00 69 998.0
20260509154256 27 0 0.0 0.0 0.00 0.00 0.00 69 998.0
20260509154156 27 0 0.0 0.0 0.00 0.00 0.00 69 998.0
20260509154056 27 0 0.0 0.0 0.00 0.00 0.00 69 998.0
20260509153956 27 0 0.0 0.0 0.00 0.00 0.00 69 997.9
20260509153856 27 0 0.0 0.0 0.00 0.00 0.00 69 997.9
20260509153756 27 0 0.0 0.0 0.00 0.00 0.00 69 998.0
20260509153656 27 0 0.0 0.0 0.00 0.00 0.00 69 998.0
20260509153556 27 0 0.0 0.0 0.00 0.00 0.00 69 998.0
20260509153456 27 0 0.0 0.0 0.00 0.00 0.00 69 998.0
20260509153356 27 0 0.0 0.0 0.00 0.00 0.00 69 998.0
20260509153256 27 0 0.0 0.0 0.00 0.00 0.00 69 998.0
20260509153156 27 0 0.0 0.0 0.00 0.00 0.00 69 998.0
20260509153057 27 0 0.0 0.0 0.00 0.00 0.00 69 998.0
20260509152957 27 0 0.0 0.0 0.00 0.00 0.00 69 998.0
20260509152857 27 0 0.0 0.0 0.00 0.00 0.00 69 998.0
20260509152757 27 0 0.0 0.0 0.00 0.00 0.00 69 998.0
20260509152657 27 0 0.0 0.0 0.00 0.00 0.00 69 997.9
20260509152557 27 0 0.0 0.0 0.00 0.00 0.00 69 998.0
20260509152457 27 0 0.0 0.0 0.00 0.00 0.00 69 997.9
20260509152357 27 0 0.0 0.0 0.00 0.00 0.00 69 997.9
20260509152257 27 0 0.0 0.0 0.00 0.00 0.00 69 997.9
20260509152157 27 0 0.0 0.0 0.00 0.00 0.00 69 997.9
20260509152057 27 0 0.0 0.0 0.00 0.00 0.00 69 998.0
20260509151957 27 0 0.0 0.0 0.00 0.00 0.00 69 997.9
20260509151857 27 0 0.0 0.0 0.00 0.00 0.00 70 998.0
20260509151757 27 0 0.0 0.0 0.00 0.00 0.00 69 998.0
20260509151657 27 0 0.0 0.0 0.00 0.00 0.00 69 997.9
20260509151557 27 0 0.0 0.0 0.00 0.00 0.00 69 997.9
20260509151457 27 0 0.0 0.0 0.00 0.00 0.00 69 998.0
20260509151357 27 0 0.0 0.0 0.00 0.00 0.00 69 997.9
20260509151258 27 0 0.0 0.0 0.00 0.00 0.00 69 997.9
20260509151158 27 0 0.0 0.0 0.00 0.00 0.00 69 997.9
20260509151058 27 0 0.0 0.0 0.00 0.00 0.00 69 998.0
20260509150958 27 0 0.0 0.0 0.00 0.00 0.00 69 997.9
20260509150858 27 0 0.0 0.0 0.00 0.00 0.00 69 998.0
20260509150758 27 0 0.0 0.0 0.00 0.00 0.00 69 997.9
20260509150658 27 0 0.0 0.0 0.00 0.00 0.00 69 998.0
20260509150558 27 0 0.0 0.0 0.00 0.00 0.00 69 998.0
20260509150458 27 0 0.0 0.0 0.00 0.00 0.00 69 998.0
20260509150358 27 0 0.0 0.0 0.00 0.00 0.00 69 997.9
20260509150258 27 0 0.0 0.0 0.00 0.00 0.00 69 998.0
20260509150158 27 0 0.0 0.0 0.00 0.00 0.00 69 997.9
20260509150058 27 0 0.0 0.0 0.00 0.00 0.00 69 997.9
20260509145958 27 0 0.0 0.0 0.00 0.00 0.00 69 997.9
20260509145858 27 0 0.0 0.0 0.00 0.00 0.00 69 998.0
20260509145758 27 0 0.0 0.0 0.00 0.00 0.00 69 997.9
20260509145658 27 0 0.0 0.0 0.00 0.00 0.00 69 998.0
20260509145559 27 0 0.0 0.0 0.00 0.00 0.00 69 998.0
20260509145459 27 0 0.0 0.0 0.00 0.00 0.00 69 998.0
20260509145359 27 0 0.0 0.0 0.00 0.00 0.00 69 998.0
20260509145259 27 0 0.0 0.0 0.00 0.00 0.00 69 998.0
20260509145159 27 0 0.0 0.0 0.00 0.00 0.00 69 998.0
20260509145059 27 0 0.0 0.0 0.00 0.00 0.00 69 997.9
20260509144959 27 0 0.0 0.0 0.00 0.00 0.00 69 998.0
20260509144859 27 0 0.0 0.0 0.00 0.00 0.00 69 998.0
20260509144759 27 0 0.0 0.0 0.00 0.00 0.00 69 998.1
20260509144659 27 0 0.0 0.0 0.00 0.00 0.00 69 998.1
20260509144559 27 0 0.0 0.0 0.00 0.00 0.00 70 998.0
20260509144459 27 0 0.0 0.0 0.00 0.00 0.00 69 998.1
20260509144359 27 0 0.0 0.0 0.00 0.00 0.00 70 998.1
20260509144259 27 0 0.0 0.0 0.00 0.00 0.00 69 998.1
20260509144159 27 0 0.0 0.0 0.00 0.00 0.00 69 998.1
20260509144100 27 0 0.0 0.0 0.00 0.00 0.00 70 998.1
20260509144000 27 0 0.0 0.0 0.00 0.00 0.00 69 998.1
20260509143900 27 0 0.0 0.0 0.00 0.00 0.00 69 998.2
20260509143800 27 0 0.0 0.0 0.00 0.00 0.00 69 998.1
20260509143700 27 0 0.0 0.0 0.00 0.00 0.00 69 998.2
20260509143600 27 0 0.0 0.0 0.00 0.00 0.00 69 998.2
20260509143500 27 0 0.0 0.0 0.00 0.00 0.00 69 998.1
20260509143400 27 0 0.0 0.0 0.00 0.00 0.00 69 998.1
20260509143300 27 0 0.0 0.0 0.00 0.00 0.00 69 998.2
20260509143201 27 0 0.0 0.0 0.00 0.00 0.00 70 998.3
20260509143100 27 0 0.0 0.0 0.00 0.00 0.00 69 998.2
20260509143000 27 0 0.0 0.0 0.00 0.00 0.00 69 998.2
20260509142900 27 0 0.0 0.0 0.00 0.00 0.00 69 998.2
20260509142800 27 0 0.0 0.0 0.00 0.00 0.00 69 998.3
20260509142700 27 0 0.0 0.0 0.00 0.00 0.00 69 998.2
20260509142600 27 0 0.0 0.0 0.00 0.00 0.00 69 998.3
20260509142501 27 0 0.0 0.0 0.00 0.00 0.00 69 998.2
20260509142401 27 0 0.0 0.0 0.00 0.00 0.00 69 998.2
20260509142301 27 0 0.0 0.0 0.00 0.00 0.00 69 998.1
20260509142201 27 0 0.0 0.0 0.00 0.00 0.00 69 998.2
20260509142101 27 0 0.0 0.0 0.00 0.00 0.00 69 998.2
20260509142001 27 0 0.0 0.0 0.00 0.00 0.00 69 998.3
20260509141901 27 0 0.0 0.0 0.00 0.00 0.00 69 998.3
20260509141801 27 0 0.0 0.0 0.00 0.00 0.00 69 998.3
20260509141701 27 0 0.0 0.0 0.00 0.00 0.00 69 998.3
20260509141601 27 0 0.0 0.0 0.00 0.00 0.00 69 998.3
20260509141501 27 0 0.0 0.0 0.00 0.00 0.00 69 998.3
20260509141401 27 0 0.0 0.0 0.00 0.00 0.00 69 998.3
20260509141301 27 0 0.0 0.0 0.00 0.00 0.00 69 998.3
20260509141202 27 0 0.0 0.0 0.00 0.00 0.00 69 998.3
20260509141102 27 0 0.0 0.0 0.00 0.00 0.00 69 998.3
20260509141002 27 0 0.0 0.0 0.00 0.00 0.00 69 998.3
20260509140902 27 0 0.0 0.0 0.00 0.00 0.00 69 998.4
20260509140802 27 0 0.0 0.0 0.00 0.00 0.00 69 998.4
20260509140702 27 0 0.0 0.0 0.00 0.00 0.00 69 998.3
20260509140602 27 0 0.0 0.0 0.00 0.00 0.00 69 998.3
20260509140502 27 0 0.0 0.0 0.00 0.00 0.00 69 998.3
20260509140402 27 0 0.0 0.0 0.00 0.00 0.00 69 998.3
20260509140302 27 0 0.0 0.0 0.00 0.00 0.00 69 998.4
20260509140202 27 0 0.0 0.0 0.00 0.00 0.00 69 998.3
20260509140002 27 0 0.0 0.0 0.00 0.00 0.00 69 998.4
20260509135903 27 0 0.0 0.0 0.00 0.00 0.00 69 998.4
20260509135803 27 0 0.0 0.0 0.00 0.00 0.00 69 998.3
20260509135703 27 0 0.0 0.0 0.00 0.00 0.00 69 998.3
20260509135603 27 0 0.0 0.0 0.00 0.00 0.00 69 998.4
20260509135503 27 0 0.0 0.0 0.00 0.00 0.00 69 998.4
20260509135403 27 0 0.0 0.0 0.00 0.00 0.00 69 998.3
20260509135306 27 0 0.0 0.0 0.00 0.00 0.00 69 998.4
20260509135203 27 0 0.0 0.0 0.00 0.00 0.00 69 998.4
20260509135103 27 0 0.0 0.0 0.00 0.00 0.00 69 998.3
20260509135003 27 0 0.0 0.0 0.00 0.00 0.00 69 998.4
20260509134903 27 0 0.0 0.0 0.00 0.00 0.00 69 998.3
20260509134804 27 0 0.0 0.0 0.00 0.00 0.00 69 998.3
20260509134703 27 0 0.0 0.0 0.00 0.00 0.00 69 998.3
20260509134603 27 0 0.0 0.0 0.00 0.00 0.00 69 998.3
20260509134503 27 0 0.0 0.0 0.00 0.00 0.00 69 998.3
20260509134403 27 0 0.0 0.0 0.00 0.00 0.00 69 998.3
20260509134304 27 0 0.0 0.0 0.00 0.00 0.00 69 998.4
20260509134204 27 0 0.0 0.0 0.00 0.00 0.00 69 998.3
20260509134104 27 0 0.0 0.0 0.00 0.00 0.00 69 998.3
20260509134004 27 0 0.0 0.0 0.00 0.00 0.00 69 998.3
20260509133904 27 0 0.0 0.0 0.00 0.00 0.00 69 998.3
20260509133804 27 0 0.0 0.0 0.00 0.00 0.00 69 998.3
20260509133704 27 0 0.0 0.0 0.00 0.00 0.00 69 998.4
20260509133604 27 0 0.0 0.0 0.00 0.00 0.00 69 998.3
20260509133504 27 0 0.0 0.0 0.00 0.00 0.00 69 998.3
20260509133404 27 0 0.0 0.0 0.00 0.00 0.00 69 998.4
20260509133305 27 0 0.0 0.0 0.00 0.00 0.00 69 998.4
20260509133204 27 0 0.0 0.0 0.00 0.00 0.00 69 998.4
20260509133104 27 0 0.0 0.0 0.00 0.00 0.00 69 998.4
20260509133005 27 0 0.0 0.0 0.00 0.00 0.00 69 998.5
20260509132904 27 0 0.0 0.0 0.00 0.00 0.00 69 998.5
20260509132805 27 0 0.0 0.0 0.00 0.00 0.00 69 998.4
20260509132705 27 0 0.0 0.0 0.00 0.00 0.00 69 998.4
20260509132605 27 0 0.0 0.0 0.00 0.00 0.00 69 998.5
20260509132505 27 0 0.0 0.0 0.00 0.00 0.00 69 998.4
20260509132405 27 0 0.0 0.0 0.00 0.00 0.00 69 998.5
20260509132306 27 0 0.0 0.0 0.00 0.00 0.00 69 998.5
20260509132205 27 0 0.0 0.0 0.00 0.00 0.00 69 998.5
20260509132105 27 0 0.0 0.0 0.00 0.00 0.00 69 998.4
20260509132005 27 0 0.0 0.0 0.00 0.00 0.00 69 998.4
20260509131905 27 0 0.0 0.0 0.00 0.00 0.00 69 998.4
20260509131805 27 0 0.0 0.0 0.00 0.00 0.00 69 998.4
20260509131705 27 0 0.0 0.0 0.00 0.00 0.00 69 998.4
20260509131605 27 0 0.0 0.0 0.00 0.00 0.00 69 998.5
20260509131505 27 0 0.0 0.0 0.00 0.00 0.00 69 998.5
20260509131405 27 0 0.0 0.0 0.00 0.00 0.00 69 998.5
20260509131306 27 0 0.0 0.0 0.00 0.00 0.00 69 998.4
20260509131206 27 0 0.0 0.0 0.00 0.00 0.00 69 998.5
20260509131106 27 0 0.0 0.0 0.00 0.00 0.00 69 998.5
20260509131006 27 0 0.0 0.0 0.00 0.00 0.00 69 998.5
20260509130906 27 0 0.0 0.0 0.00 0.00 0.00 69 998.5
20260509130806 27 0 0.0 0.0 0.00 0.00 0.00 69 998.5
20260509130706 27 0 0.0 0.0 0.00 0.00 0.00 69 998.5
20260509130606 27 0 0.0 0.0 0.00 0.00 0.00 69 998.5
20260509130506 27 0 0.0 0.0 0.00 0.00 0.00 69 998.5
20260509130406 27 0 0.0 0.0 0.00 0.00 0.00 69 998.5
20260509130306 27 0 0.0 0.0 0.00 0.00 0.00 69 998.5
20260509130206 27 0 0.0 0.0 0.00 0.00 0.00 69 998.5
20260509130106 27 0 0.0 0.0 0.00 0.00 0.00 69 998.5
20260509130006 27 0 0.0 0.0 0.00 0.00 0.00 69 998.5
20260509125906 27 0 0.0 0.0 0.00 0.00 0.00 69 998.6
20260509125807 27 0 0.0 0.0 0.00 0.00 0.00 69 998.5
20260509125707 27 0 0.0 0.0 0.00 0.00 0.00 69 998.5
20260509125607 27 0 0.0 0.0 0.00 0.00 0.00 69 998.5
20260509125507 27 0 0.0 0.0 0.00 0.00 0.00 69 998.5
20260509125407 27 0 0.0 0.0 0.00 0.00 0.00 69 998.5
20260509125308 27 0 0.0 0.0 0.00 0.00 0.00 69 998.4
20260509125207 27 0 0.0 0.0 0.00 0.00 0.00 69 998.4
20260509125107 27 0 0.0 0.0 0.00 0.00 0.00 69 998.5
20260509125007 27 0 0.0 0.0 0.00 0.00 0.00 69 998.5
20260509124907 27 0 0.0 0.0 0.00 0.00 0.00 69 998.5
20260509124807 27 0 0.0 0.0 0.00 0.00 0.00 69 998.5
20260509124707 27 0 0.0 0.0 0.00 0.00 0.00 69 998.5
20260509124607 27 0 0.0 0.0 0.00 0.00 0.00 69 998.5
20260509124507 27 0 0.0 0.0 0.00 0.00 0.00 69 998.5
20260509124407 27 0 0.0 0.0 0.00 0.00 0.00 69 998.5
20260509124307 27 0 0.0 0.0 0.00 0.00 0.00 69 998.6
20260509124208 27 0 0.0 0.0 0.00 0.00 0.00 69 998.6
20260509124108 27 0 0.0 0.0 0.00 0.00 0.00 69 998.5
20260509124008 27 0 0.0 0.0 0.00 0.00 0.00 69 998.5
20260509123908 27 0 0.0 0.0 0.00 0.00 0.00 69 998.6
20260509123808 27 0 0.0 0.0 0.00 0.00 0.00 69 998.6
20260509123708 27 0 0.0 0.0 0.00 0.00 0.00 69 998.6
20260509123608 27 0 0.0 0.0 0.00 0.00 0.00 69 998.6
20260509123508 27 0 0.0 0.0 0.00 0.00 0.00 69 998.6
20260509123408 27 0 0.0 0.0 0.00 0.00 0.00 69 998.6
20260509123308 27 0 0.0 0.0 0.00 0.00 0.00 69 998.6
20260509123208 27 0 0.0 0.0 0.00 0.00 0.00 69 998.6
20260509123108 27 0 0.0 0.0 0.00 0.00 0.00 69 998.6
20260509123008 27 0 0.0 0.0 0.00 0.00 0.00 69 998.6
20260509122909 27 0 0.0 0.0 0.00 0.00 0.00 69 998.6
20260509122809 27 0 0.0 0.0 0.00 0.00 0.00 69 998.6
20260509122709 27 0 0.0 0.0 0.00 0.00 0.00 69 998.6
20260509122609 27 0 0.0 0.0 0.00 0.00 0.00 69 998.7
20260509122509 27 0 0.0 0.0 0.00 0.00 0.00 69 998.7
20260509122409 27 0 0.0 0.0 0.00 0.00 0.00 69 998.7
20260509122309 27 0 0.0 0.0 0.00 0.00 0.00 69 998.6
20260509122209 27 0 0.0 0.0 0.00 0.00 0.00 69 998.6
20260509122109 27 0 0.0 0.0 0.00 0.00 0.00 69 998.5
20260509122009 27 0 0.0 0.0 0.00 0.00 0.00 69 998.5
20260509121909 27 0 0.0 0.0 0.00 0.00 0.00 69 998.5
20260509121809 27 0 0.0 0.0 0.00 0.00 0.00 69 998.5
20260509121709 27 0 0.0 0.0 0.00 0.00 0.00 69 998.5
20260509121609 27 0 0.0 0.0 0.00 0.00 0.00 69 998.4
20260509121509 27 0 0.0 0.0 0.00 0.00 0.00 69 998.4
20260509121409 27 0 0.0 0.0 0.00 0.00 0.00 69 998.4
20260509121310 27 0 0.0 0.0 0.00 0.00 0.00 69 998.4
20260509121210 27 0 0.0 0.0 0.00 0.00 0.00 69 998.4
20260509121110 27 0 0.0 0.0 0.00 0.00 0.00 69 998.4
20260509121010 27 0 0.0 0.0 0.00 0.00 0.00 69 998.5
20260509120910 27 0 0.0 0.0 0.00 0.00 0.00 69 998.5
20260509120810 27 0 0.0 0.0 0.00 0.00 0.00 69 998.5
20260509120710 27 0 0.0 0.0 0.00 0.00 0.00 69 998.5
20260509120610 27 0 0.0 0.0 0.00 0.00 0.00 69 998.5
20260509120510 27 0 0.0 0.0 0.00 0.00 0.00 69 998.6
20260509120410 27 0 0.0 0.0 0.00 0.00 0.00 69 998.6
20260509120310 27 0 0.0 0.0 0.00 0.00 0.00 69 998.5
20260509120210 27 0 0.0 0.0 0.00 0.00 0.00 69 998.6
20260509120110 27 0 0.0 0.0 0.00 0.00 0.00 69 998.5
20260509120010 27 0 0.0 0.0 0.00 0.00 0.00 69 998.5
20260509115911 27 0 0.0 0.0 0.00 0.00 0.00 69 998.5
20260509115811 27 0 0.0 0.0 0.00 0.00 0.00 69 998.5
20260509115711 27 0 0.0 0.0 0.00 0.00 0.00 69 998.5
20260509115611 27 0 0.0 0.0 0.00 0.00 0.00 69 998.5
20260509115511 27 0 0.0 0.0 0.00 0.00 0.00 69 998.5
20260509115411 27 0 0.0 0.0 0.00 0.00 0.00 69 998.5
20260509115311 27 0 0.0 0.0 0.00 0.00 0.00 69 998.5
20260509115211 27 0 0.0 0.0 0.00 0.00 0.00 69 998.5
20260509115111 27 0 0.0 0.0 0.00 0.00 0.00 69 998.6
20260509115011 27 0 0.0 0.0 0.00 0.00 0.00 69 998.5
20260509114911 27 0 0.0 0.0 0.00 0.00 0.00 69 998.6
20260509114811 27 0 0.0 0.0 0.00 0.00 0.00 69 998.6
20260509114711 27 0 0.0 0.0 0.00 0.00 0.00 69 998.6
20260509114611 27 0 0.0 0.0 0.00 0.00 0.00 69 998.6
20260509114511 27 0 0.0 0.0 0.00 0.00 0.00 69 998.6
20260509114411 27 0 0.0 0.0 0.00 0.00 0.00 69 998.6
20260509114311 27 0 0.0 0.0 0.00 0.00 0.00 69 998.6
20260509114211 27 0 0.0 0.0 0.00 0.00 0.00 69 998.6
20260509114111 27 0 0.0 0.0 0.00 0.00 0.00 69 998.6
20260509114012 27 0 0.0 0.0 0.00 0.00 0.00 69 998.6
20260509113912 27 0 0.0 0.0 0.00 0.00 0.00 69 998.5
20260509113812 27 0 0.0 0.0 0.00 0.00 0.00 69 998.6
20260509113712 27 0 0.0 0.0 0.00 0.00 0.00 69 998.6
20260509113612 27 0 0.0 0.0 0.00 0.00 0.00 69 998.6
20260509113512 27 0 0.0 0.0 0.00 0.00 0.00 69 998.6
20260509113412 27 0 0.0 0.0 0.00 0.00 0.00 69 998.6
20260509113312 27 0 0.0 0.0 0.00 0.00 0.00 69 998.5
20260509113212 27 0 0.0 0.0 0.00 0.00 0.00 69 998.6
20260509113112 27 0 0.0 0.0 0.00 0.00 0.00 69 998.5
20260509113012 27 0 0.0 0.0 0.00 0.00 0.00 69 998.5
20260509112912 27 0 0.0 0.0 0.00 0.00 0.00 69 998.6
20260509112812 27 0 0.0 0.0 0.00 0.00 0.00 69 998.6
20260509112712 27 0 0.0 0.0 0.00 0.00 0.00 69 998.6
20260509112613 27 0 0.0 0.0 0.00 0.00 0.00 69 998.7
20260509112513 27 0 0.0 0.0 0.00 0.00 0.00 69 998.6
20260509112413 27 0 0.0 0.0 0.00 0.00 0.00 69 998.6
20260509112313 27 0 0.0 0.0 0.00 0.00 0.00 69 998.6
20260509112213 27 0 0.0 0.0 0.00 0.00 0.00 69 998.6
20260509112113 27 0 0.0 0.0 0.00 0.00 0.00 69 998.7
20260509112013 27 0 0.0 0.0 0.00 0.00 0.00 69 998.7
20260509111913 27 0 0.0 0.0 0.00 0.00 0.00 69 998.7
20260509111813 27 0 0.0 0.0 0.00 0.00 0.00 69 998.7
20260509111713 27 0 0.0 0.0 0.00 0.00 0.00 69 998.7
20260509111613 27 0 0.0 0.0 0.00 0.00 0.00 69 998.7
20260509111513 27 0 0.0 0.0 0.00 0.00 0.00 69 998.7
20260509111414 27 0 0.0 0.0 0.00 0.00 0.00 69 998.7
20260509111313 27 0 0.0 0.0 0.00 0.00 0.00 69 998.7
20260509111213 27 0 0.0 0.0 0.00 0.00 0.00 69 998.7
20260509111113 27 0 0.0 0.0 0.00 0.00 0.00 69 998.7
20260509111013 27 0 0.0 0.0 0.00 0.00 0.00 69 998.8
20260509110914 27 0 0.0 0.0 0.00 0.00 0.00 69 998.7
20260509110814 27 0 0.0 0.0 0.00 0.00 0.00 69 998.8
20260509110714 27 0 0.0 0.0 0.00 0.00 0.00 69 998.8
20260509110614 27 0 0.0 0.0 0.00 0.00 0.00 69 998.8
20260509110514 27 0 0.0 0.0 0.00 0.00 0.00 69 998.8
20260509110414 27 0 0.0 0.0 0.00 0.00 0.00 69 998.8
20260509110314 27 0 0.0 0.0 0.00 0.00 0.00 69 998.7
20260509110214 27 0 0.0 0.0 0.00 0.00 0.00 69 998.7
20260509110114 27 0 0.0 0.0 0.00 0.00 0.00 69 998.6
20260509110014 27 0 0.0 0.0 0.00 0.00 0.00 69 998.6
20260509105914 27 0 0.0 0.0 0.00 0.00 0.00 69 998.7
20260509105814 27 0 0.0 0.0 0.00 0.00 0.00 69 998.7
20260509105714 27 0 0.0 0.0 0.00 0.00 0.00 69 998.7
20260509105614 27 0 0.0 0.0 0.00 0.00 0.00 69 998.7
20260509105514 27 0 0.0 0.0 0.00 0.00 0.00 69 998.7
20260509105414 27 0 0.0 0.0 0.00 0.00 0.00 69 998.8
20260509105315 27 0 0.0 0.0 0.00 0.00 0.00 69 998.8
20260509105215 27 0 0.0 0.0 0.00 0.00 0.00 69 998.7
20260509105115 27 0 0.0 0.0 0.00 0.00 0.00 69 998.8
20260509105015 27 0 0.0 0.0 0.00 0.00 0.00 68 998.8
20260509104915 27 0 0.0 0.0 0.00 0.00 0.00 69 998.8
20260509104815 27 0 0.0 0.0 0.00 0.00 0.00 69 998.7
20260509104715 27 0 0.0 0.0 0.00 0.00 0.00 69 998.8
20260509104615 27 0 0.0 0.0 0.00 0.00 0.00 69 998.8
20260509104515 27 0 0.0 0.0 0.00 0.00 0.00 68 998.7
20260509104415 27 0 0.0 0.0 0.00 0.00 0.00 69 998.7
20260509104315 27 0 0.0 0.0 0.00 0.00 0.00 69 998.8
20260509104215 27 0 0.0 0.0 0.00 0.00 0.00 69 998.8
20260509104115 27 0 0.0 0.0 0.00 0.00 0.00 69 998.8
20260509104015 27 0 0.0 0.0 0.00 0.00 0.00 69 998.8
20260509103916 27 0 0.0 0.0 0.00 0.00 0.00 69 998.8
20260509103816 27 0 0.0 0.0 0.00 0.00 0.00 69 998.8
20260509103716 27 0 0.0 0.0 0.00 0.00 0.00 69 998.8
20260509103616 27 0 0.0 0.0 0.00 0.00 0.00 69 998.8
20260509103516 27 0 0.0 0.0 0.00 0.00 0.00 69 998.8
20260509103416 27 0 0.0 0.0 0.00 0.00 0.00 69 998.8
20260509103316 27 0 0.0 0.0 0.00 0.00 0.00 68 998.8
20260509103216 27 0 0.0 0.0 0.00 0.00 0.00 69 998.7
20260509103116 27 0 0.0 0.0 0.00 0.00 0.00 69 998.7
20260509103017 27 0 0.0 0.0 0.00 0.00 0.00 68 998.7
20260509102916 27 0 0.0 0.0 0.00 0.00 0.00 69 998.7
20260509102816 27 0 0.0 0.0 0.00 0.00 0.00 69 998.7
20260509102717 27 0 0.0 0.0 0.00 0.00 0.00 69 998.7
20260509102617 27 0 0.0 0.0 0.00 0.00 0.00 69 998.6
20260509102517 27 0 0.0 0.0 0.00 0.00 0.00 69 998.6
20260509102417 27 0 0.0 0.0 0.00 0.00 0.00 69 998.6
20260509102317 27 0 0.0 0.0 0.00 0.00 0.00 68 998.6
20260509102217 27 0 0.0 0.0 0.00 0.00 0.00 68 998.6
20260509102117 27 0 0.0 0.0 0.00 0.00 0.00 68 998.6
20260509102017 27 0 0.0 0.0 0.00 0.00 0.00 69 998.5
20260509101917 27 0 0.0 0.0 0.00 0.00 0.00 69 998.6
20260509101817 27 0 0.0 0.0 0.00 0.00 0.00 69 998.6
20260509101717 27 0 0.0 0.0 0.00 0.00 0.00 69 998.6
20260509101617 27 0 0.0 0.0 0.00 0.00 0.00 69 998.5
20260509101517 27 0 0.0 0.0 0.00 0.00 0.00 69 998.6
20260509101417 27 0 0.0 0.0 0.00 0.00 0.00 69 998.5
20260509101317 27 0 0.0 0.0 0.00 0.00 0.00 69 998.5
20260509101218 27 0 0.0 0.0 0.00 0.00 0.00 69 998.5
20260509101118 27 0 0.0 0.0 0.00 0.00 0.00 69 998.4
20260509101018 27 0 0.0 0.0 0.00 0.00 0.00 69 998.4
20260509100918 27 0 0.0 0.0 0.00 0.00 0.00 69 998.4
20260509100818 27 0 0.0 0.0 0.00 0.00 0.00 69 998.4
20260509100718 27 0 0.0 0.0 0.00 0.00 0.00 69 998.5
20260509100618 27 0 0.0 0.0 0.00 0.00 0.00 69 998.4
20260509100518 27 0 0.0 0.0 0.00 0.00 0.00 69 998.5
20260509100418 27 0 0.0 0.0 0.00 0.00 0.00 69 998.4
20260509100318 27 0 0.0 0.0 0.00 0.00 0.00 69 998.4
20260509100218 27 0 0.0 0.0 0.00 0.00 0.00 69 998.4
20260509100118 27 0 0.0 0.0 0.00 0.00 0.00 69 998.3
20260509100018 27 0 0.0 0.0 0.00 0.00 0.00 69 998.3
20260509095918 27 0 0.0 0.0 0.00 0.00 0.00 69 998.4
20260509095818 27 0 0.0 0.0 0.00 0.00 0.00 69 998.4
20260509095718 27 0 0.0 0.0 0.00 0.00 0.00 69 998.4
20260509095618 27 0 0.0 0.0 0.00 0.00 0.00 69 998.5
20260509095519 27 0 0.0 0.0 0.00 0.00 0.00 69 998.4
20260509095419 27 0 0.0 0.0 0.00 0.00 0.00 69 998.4
20260509095319 27 0 0.0 0.0 0.00 0.00 0.00 69 998.4
20260509095219 27 0 0.0 0.0 0.00 0.00 0.00 69 998.4
20260509095119 27 0 0.0 0.0 0.00 0.00 0.00 69 998.4
20260509095019 27 0 0.0 0.0 0.00 0.00 0.00 69 998.5
20260509094919 27 0 0.0 0.0 0.00 0.00 0.00 68 998.4
20260509094819 27 0 0.0 0.0 0.00 0.00 0.00 68 998.4
20260509094719 27 0 0.0 0.0 0.00 0.00 0.00 68 998.4
20260509094619 27 0 0.0 0.0 0.00 0.00 0.00 69 998.4
20260509094519 27 0 0.0 0.0 0.00 0.00 0.00 69 998.3
20260509094419 27 0 0.0 0.0 0.00 0.00 0.00 69 998.4
20260509094319 27 0 0.0 0.0 0.00 0.00 0.00 69 998.4
20260509094219 27 0 0.0 0.0 0.00 0.00 0.00 69 998.4
20260509094119 27 0 0.0 0.0 0.00 0.00 0.00 69 998.4
20260509094019 27 0 0.0 0.0 0.00 0.00 0.00 68 998.4
20260509093919 27 0 0.0 0.0 0.00 0.00 0.00 68 998.4
20260509093820 27 0 0.0 0.0 0.00 0.00 0.00 68 998.4
20260509093720 27 0 0.0 0.0 0.00 0.00 0.00 69 998.4
20260509093620 27 0 0.0 0.0 0.00 0.00 0.00 68 998.4
20260509093520 27 0 0.0 0.0 0.00 0.00 0.00 69 998.3
20260509093420 27 0 0.0 0.0 0.00 0.00 0.00 68 998.3
20260509093320 27 0 0.0 0.0 0.00 0.00 0.00 68 998.2
20260509093220 27 0 0.0 0.0 0.00 0.00 0.00 69 998.2
20260509093120 27 0 0.0 0.0 0.00 0.00 0.00 69 998.3
20260509093020 27 0 0.0 0.0 0.00 0.00 0.00 68 998.3
20260509092920 27 0 0.0 0.0 0.00 0.00 0.00 68 998.3
20260509092820 27 0 0.0 0.0 0.00 0.00 0.00 68 998.3
20260509092720 27 0 0.0 0.0 0.00 0.00 0.00 69 998.3
20260509092620 27 0 0.0 0.0 0.00 0.00 0.00 69 998.3
20260509092520 28 0 0.0 0.0 0.00 0.00 0.00 68 998.3
20260509092420 27 0 0.0 0.0 0.00 0.00 0.00 69 998.4
20260509092321 27 0 0.0 0.0 0.00 0.00 0.00 69 998.4
20260509092221 27 0 0.0 0.0 0.00 0.00 0.00 69 998.4
20260509092121 27 0 0.0 0.0 0.00 0.00 0.00 69 998.4
20260509092021 27 0 0.0 0.0 0.00 0.00 0.00 69 998.4
20260509091921 27 0 0.0 0.0 0.00 0.00 0.00 69 998.3
20260509091821 27 0 0.0 0.0 0.00 0.00 0.00 69 998.3
20260509091721 27 0 0.0 0.0 0.00 0.00 0.00 69 998.3
20260509091621 27 0 0.0 0.0 0.00 0.00 0.00 69 998.3
20260509091521 27 0 0.0 0.0 0.00 0.00 0.00 69 998.3
20260509091421 27 0 0.0 0.0 0.00 0.00 0.00 69 998.2
20260509091321 27 0 0.0 0.0 0.00 0.00 0.00 69 998.3
20260509091221 27 0 0.0 0.0 0.00 0.00 0.00 69 998.3
20260509091121 27 0 0.0 0.0 0.00 0.00 0.00 69 998.3
20260509091021 27 0 0.0 0.0 0.00 0.00 0.00 70 998.2
20260509090922 27 0 0.0 0.0 0.00 0.00 0.00 70 998.2
20260509090822 27 0 0.0 0.0 0.00 0.00 0.00 69 998.3
20260509090722 27 0 0.0 0.0 0.00 0.00 0.00 69 998.2
20260509090622 27 0 0.0 0.0 0.00 0.00 0.00 69 998.2
20260509090522 27 0 0.0 0.0 0.00 0.00 0.00 70 998.2
20260509090422 27 0 0.0 0.0 0.00 0.00 0.00 70 998.2
20260509090322 27 0 0.0 0.0 0.00 0.00 0.00 70 998.2
20260509090222 27 0 0.0 0.0 0.00 0.00 0.00 70 998.3
20260509090122 27 0 0.0 0.0 0.00 0.00 0.00 69 998.2
20260509090022 27 0 0.0 0.0 0.00 0.00 0.00 69 998.2
20260509085922 28 0 0.0 0.0 0.00 0.00 0.00 69 998.2
20260509085822 27 0 0.0 0.0 0.00 0.00 0.00 70 998.2
20260509085722 28 0 0.0 0.0 0.00 0.00 0.00 69 998.1
20260509085622 28 0 0.0 0.0 0.00 0.00 0.00 69 998.1
20260509085522 27 0 0.0 0.0 0.00 0.00 0.00 69 998.1
20260509085422 28 0 0.0 0.0 0.00 0.00 0.00 69 998.1
20260509085322 28 0 0.0 0.0 0.00 0.00 0.00 69 998.1
20260509085223 28 0 0.0 0.0 0.00 0.00 0.00 69 998.1
20260509085123 28 0 0.0 0.0 0.00 0.00 0.00 69 998.1
20260509085023 28 0 0.0 0.0 0.00 0.00 0.00 69 998.1
20260509084923 28 0 0.0 0.0 0.00 0.00 0.00 69 998.1
20260509084823 28 0 0.0 0.0 0.00 0.00 0.00 69 998.0
20260509084723 28 0 0.0 0.0 0.00 0.00 0.00 69 998.0
20260509084623 28 0 0.0 0.0 0.00 0.00 0.00 69 998.1
20260509084523 28 0 0.0 0.0 0.00 0.00 0.00 69 998.0
20260509084423 28 0 0.0 0.0 0.00 0.00 0.00 69 998.1
20260509084323 28 0 0.0 0.0 0.00 0.00 0.00 68 998.0
20260509084223 28 0 0.0 0.0 0.00 0.00 0.00 68 997.9
20260509084123 28 0 0.0 0.0 0.00 0.00 0.00 69 997.9
20260509084023 28 0 0.0 0.0 0.00 0.00 0.00 68 997.9
20260509083923 28 0 0.0 0.0 0.00 0.00 0.00 68 997.9
20260509083823 28 0 0.0 0.0 0.00 0.00 0.00 68 997.9
20260509083723 28 0 0.0 0.0 0.00 0.00 0.00 68 997.9
20260509083623 28 0 0.0 0.0 0.00 0.00 0.00 68 997.9
20260509083523 28 0 0.0 0.0 0.00 0.00 0.00 68 997.9
20260509083424 28 0 0.0 0.0 0.00 0.00 0.00 68 997.8
20260509083324 28 0 0.0 0.0 0.00 0.00 0.00 68 997.9
20260509083224 28 0 0.0 0.0 0.00 0.00 0.00 68 997.8
20260509083124 28 0 0.0 0.0 0.00 0.00 0.00 68 997.8
20260509083024 28 0 0.0 0.0 0.00 0.00 0.00 68 997.8
20260509082924 28 0 0.0 0.0 0.00 0.00 0.00 69 997.7
20260509082824 28 0 0.0 0.0 0.00 0.00 0.00 69 997.8
20260509082724 28 0 0.0 0.0 0.00 0.00 0.00 69 997.8
20260509082624 28 0 0.0 0.0 0.00 0.00 0.00 69 997.8
20260509082524 28 0 0.0 0.0 0.00 0.00 0.00 69 997.8
20260509082424 28 0 0.0 0.0 0.00 0.00 0.00 69 997.8
20260509082324 28 0 0.0 0.0 0.00 0.00 0.00 69 997.7
20260509082224 28 0 0.0 0.0 0.00 0.00 0.00 69 997.8
20260509082124 28 0 0.0 0.0 0.00 0.00 0.00 69 997.7
20260509082024 28 0 0.0 0.0 0.00 0.00 0.00 70 997.8
20260509081924 28 0 0.0 0.0 0.00 0.00 0.00 70 997.7
20260509081825 28 0 0.0 0.0 0.00 0.00 0.00 71 997.7
20260509081725 28 0 0.0 0.0 0.00 0.00 0.00 71 997.6
20260509081625 28 0 0.0 0.0 0.00 0.00 0.00 71 997.6
20260509081525 28 0 0.0 0.0 0.00 0.00 0.00 71 997.6
20260509081425 28 0 0.0 0.0 0.00 0.00 0.00 71 997.6
20260509081325 28 0 0.0 0.0 0.00 0.00 0.00 71 997.6
20260509081225 28 0 0.0 0.0 0.00 0.00 0.00 71 997.5
20260509081125 27 0 0.0 0.0 0.00 0.00 0.00 71 997.6
20260509081025 27 0 0.0 0.0 0.00 0.00 0.00 71 997.5
20260509080925 27 0 0.0 0.0 0.00 0.00 0.00 71 997.5
20260509080825 27 0 0.0 0.0 0.00 0.00 0.00 70 997.5
20260509080725 27 0 0.0 0.0 0.00 0.00 0.00 71 997.6
20260509080625 27 0 0.0 0.0 0.00 0.00 0.00 71 997.5
20260509080525 27 0 0.0 0.0 0.00 0.00 0.00 71 997.5
20260509080425 27 0 0.0 0.0 0.00 0.00 0.00 70 997.4
20260509080325 28 0 0.0 0.0 0.00 0.00 0.00 70 997.4
20260509080225 28 0 0.0 0.0 0.00 0.00 0.00 70 997.4
20260509080126 28 0 0.0 0.0 0.00 0.00 0.00 71 997.4
20260509080026 28 0 0.0 0.0 0.00 0.00 0.00 70 997.5
20260509075926 28 0 0.0 0.0 0.00 0.00 0.00 70 997.5
20260509075826 28 0 0.0 0.0 0.00 0.00 0.00 71 997.6
20260509075726 28 0 0.0 0.0 0.00 0.00 0.00 71 997.6
20260509075626 28 0 0.0 0.0 0.00 0.00 0.00 71 997.5
20260509075526 28 0 0.0 0.0 0.00 0.00 0.00 71 997.5
20260509075426 28 0 0.0 0.0 0.00 0.00 0.00 71 997.4
20260509075326 28 0 0.0 0.0 0.00 0.00 0.00 71 997.4
20260509075226 28 0 0.0 0.0 0.00 0.00 0.00 70 997.5
20260509075126 28 0 0.0 0.0 0.00 0.00 0.00 71 997.4
20260509075026 28 0 0.0 0.0 0.00 0.00 0.00 71 997.4
20260509074926 28 0 0.0 0.0 0.00 0.00 0.00 71 997.5
20260509074826 28 0 0.0 0.0 0.00 0.00 0.00 71 997.5
20260509074726 28 0 0.0 0.0 0.00 0.00 0.00 71 997.5
20260509074627 28 0 0.0 0.0 0.00 0.00 0.00 71 997.4
20260509074527 28 0 0.0 0.0 0.00 0.00 0.00 71 997.4
20260509074427 28 0 0.0 0.0 0.00 0.00 0.00 71 997.4
20260509074327 28 0 0.0 0.0 0.00 0.00 0.00 72 997.4
20260509074227 28 0 0.0 0.0 0.00 0.00 0.00 71 997.4
20260509074127 28 0 0.0 0.0 0.00 0.00 0.00 72 997.5
20260509074027 28 0 0.0 0.0 0.00 0.00 0.00 72 997.5
20260509073927 27 0 0.0 0.0 0.00 0.00 0.00 72 997.6
20260509073827 27 0 0.0 0.0 0.00 0.00 0.00 72 997.6
20260509073727 27 0 0.0 0.0 0.00 0.00 0.00 72 997.5
20260509073627 27 0 0.0 0.0 0.00 0.00 0.00 72 997.6
20260509073527 27 0 0.0 0.0 0.00 0.00 0.00 72 997.6
20260509073427 27 0 0.0 0.0 0.00 0.00 0.00 72 997.6
20260509073328 27 0 0.0 0.0 0.00 0.00 0.00 72 997.6
20260509073228 27 0 0.0 0.0 0.00 0.00 0.00 72 997.6
20260509073128 27 0 0.0 0.0 0.00 0.00 0.00 72 997.6
20260509073028 27 0 0.0 0.0 0.00 0.00 0.00 72 997.6
20260509072928 27 0 0.0 0.0 0.00 0.00 0.00 72 997.6
20260509072828 27 0 0.0 0.0 0.00 0.00 0.00 72 997.6
20260509072728 27 0 0.0 0.0 0.00 0.00 0.00 72 997.6
20260509072628 27 0 0.0 0.0 0.00 0.00 0.00 72 997.6
20260509072528 27 0 0.0 0.0 0.00 0.00 0.00 71 997.6
20260509072428 28 0 0.0 0.0 0.00 0.00 0.00 71 997.5
20260509072328 28 0 0.0 0.0 0.00 0.00 0.00 71 997.5
20260509072228 28 0 0.0 0.0 0.00 0.00 0.00 71 997.5
20260509072128 28 0 0.0 0.0 0.00 0.00 0.00 71 997.5
20260509072028 28 0 0.0 0.0 0.00 0.00 0.00 71 997.5
20260509071929 28 0 0.0 0.0 0.00 0.00 0.00 71 997.5
20260509071829 28 0 0.0 0.0 0.00 0.00 0.00 70 997.5
20260509071729 28 0 0.0 0.0 0.00 0.00 0.00 70 997.5
20260509071629 28 0 0.0 0.0 0.00 0.00 0.00 69 997.5
20260509071529 28 0 0.0 0.0 0.00 0.00 0.00 69 997.4
20260509071429 28 0 0.0 0.0 0.00 0.00 0.00 68 997.4
20260509071329 28 0 0.0 0.0 0.00 0.00 0.00 69 997.4
20260509071230 28 0 0.0 0.0 0.00 0.00 0.00 68 997.4
20260509071129 28 0 0.0 0.0 0.00 0.00 0.00 68 997.4
20260509071029 28 0 0.0 0.0 0.00 0.00 0.00 68 997.3
20260509070929 28 0 0.0 0.0 0.00 0.00 0.00 67 997.3
20260509070829 28 0 0.0 0.0 0.00 0.00 0.00 67 997.2
20260509070729 28 0 0.0 0.0 0.00 0.00 0.00 67 997.2
20260509070629 28 0 0.0 0.0 0.00 0.00 0.00 67 997.2
20260509070530 28 0 0.0 0.0 0.00 0.00 0.00 67 997.2
20260509070430 28 0 0.0 0.0 0.00 0.00 0.00 67 997.2
20260509070330 28 0 0.0 0.0 0.00 0.00 0.00 67 997.2
20260509070230 28 0 0.0 0.0 0.00 0.00 0.00 67 997.2
20260509070130 28 0 0.0 0.0 0.00 0.00 0.00 67 997.2
20260509070030 28 0 0.0 0.0 0.00 0.00 0.00 67 997.2
20260509065930 28 0 0.0 0.0 0.00 0.00 0.00 67 997.2
20260509065830 28 0 0.0 0.0 0.00 0.00 0.00 66 997.1
20260509065730 28 0 0.0 0.0 0.00 0.00 0.00 67 997.1
20260509065630 28 0 0.0 0.0 0.00 0.00 0.00 67 997.1
20260509065530 28 0 0.0 0.0 0.00 0.00 0.00 67 997.1
20260509065430 28 0 0.0 0.0 0.00 0.00 0.00 67 997.1
20260509065330 28 0 0.0 0.0 0.00 0.00 0.00 66 997.0
20260509065230 28 0 0.0 0.0 0.00 0.00 0.00 67 997.1
20260509065130 28 0 0.0 0.0 0.00 0.00 0.00 67 997.1
20260509065031 28 0 0.0 0.0 0.00 0.00 0.00 66 997.1
20260509064931 28 0 0.0 0.0 0.00 0.00 0.00 66 997.1
20260509064831 28 0 0.0 0.0 0.00 0.00 0.00 67 997.0
20260509064731 28 0 0.0 0.0 0.00 0.00 0.00 66 997.0
20260509064631 28 0 0.0 0.0 0.00 0.00 0.00 66 997.0
20260509064531 28 0 0.0 0.0 0.00 0.00 0.00 66 997.0
20260509064431 28 0 0.0 0.0 0.00 0.00 0.00 66 997.0
20260509064331 28 0 0.0 0.0 0.00 0.00 0.00 65 997.0
20260509064231 28 0 0.0 0.0 0.00 0.00 0.00 66 997.0
20260509064131 28 0 0.0 0.0 0.00 0.00 0.00 65 996.9
20260509064031 28 0 0.0 0.0 0.00 0.00 0.00 66 996.9
20260509063931 28 0 0.0 0.0 0.00 0.00 0.00 65 996.9
20260509063831 28 0 0.0 0.0 0.00 0.00 0.00 66 996.8
20260509063731 28 0 0.0 0.0 0.00 0.00 0.00 65 996.8
20260509063632 28 0 0.0 0.0 0.00 0.00 0.00 66 996.8
20260509063532 28 0 0.0 0.0 0.00 0.00 0.00 66 996.9
20260509063432 28 0 0.0 0.0 0.00 0.00 0.00 66 996.9
20260509063332 28 0 0.0 0.0 0.00 0.00 0.00 66 996.9
20260509063232 28 0 0.0 0.0 0.00 0.00 0.00 66 997.0
20260509063132 28 0 0.0 0.0 0.00 0.00 0.00 66 997.0
20260509063032 28 0 0.0 0.0 0.00 0.00 0.00 66 996.9
20260509062932 28 0 0.0 0.0 0.00 0.00 0.00 66 997.0
20260509062832 28 0 0.0 0.0 0.00 0.00 0.00 66 997.0
20260509062732 28 0 0.0 0.0 0.00 0.00 0.00 66 997.0
20260509062632 28 0 0.0 0.0 0.00 0.00 0.00 66 997.0
20260509062532 28 0 0.0 0.0 0.00 0.00 0.00 66 996.9
20260509062432 28 0 0.0 0.0 0.00 0.00 0.00 65 997.0
20260509062332 28 0 0.0 0.0 0.00 0.00 0.00 65 996.9
20260509062232 28 0 0.0 0.0 0.00 0.00 0.00 65 996.9
20260509062132 29 0 0.0 0.0 0.00 0.00 0.00 65 996.9
20260509062033 29 0 0.0 0.0 0.00 0.00 0.00 65 996.9
20260509061933 29 0 0.0 0.0 0.00 0.00 0.00 65 996.8
20260509061833 29 0 0.0 0.0 0.00 0.00 0.00 64 996.8
20260509061733 29 0 0.0 0.0 0.00 0.00 0.00 64 996.8
20260509061633 29 0 0.0 0.0 0.00 0.00 0.00 64 996.8
20260509061533 29 0 0.0 0.0 0.00 0.00 0.00 64 996.8
20260509061433 29 0 0.0 0.0 0.00 0.00 0.00 64 996.8
20260509061333 29 0 0.0 0.0 0.00 0.00 0.00 64 996.8
20260509061233 29 0 0.0 0.0 0.00 0.00 0.00 64 996.7
20260509061133 29 0 0.0 0.0 0.00 0.00 0.00 64 996.7
20260509061033 29 0 0.0 0.0 0.00 0.00 0.00 64 996.7
20260509060933 29 0 0.0 0.0 0.00 0.00 0.00 64 996.7
20260509060834 29 0 0.0 0.0 0.00 0.00 0.00 64 996.6
20260509060734 29 0 0.0 0.0 0.00 0.00 0.00 64 996.6
20260509060634 29 0 0.0 0.0 0.00 0.00 0.00 64 996.6
20260509060534 29 0 0.0 0.0 0.00 0.00 0.00 64 996.6
20260509060434 29 0 0.0 0.0 0.00 0.00 0.00 64 996.6
20260509060334 29 0 0.0 0.0 0.00 0.00 0.00 64 996.5
20260509060234 29 0 0.0 0.0 0.00 0.00 0.00 64 996.5
20260509060134 29 0 0.0 0.0 0.00 0.00 0.00 64 996.6
20260509060034 29 0 0.0 0.0 0.00 0.00 0.00 64 996.6
20260509055934 29 0 0.0 0.0 0.00 0.00 0.00 64 996.5
20260509055834 29 0 0.0 0.0 0.00 0.00 0.00 64 996.5
20260509055735 29 0 0.0 0.0 0.00 0.00 0.00 64 996.5
20260509055635 29 0 0.0 0.0 0.00 0.00 0.00 64 996.5
20260509055535 29 0 0.0 0.0 0.00 0.00 0.00 64 996.5
20260509055435 29 0 0.0 0.0 0.00 0.00 0.00 64 996.5
20260509055335 29 0 0.0 0.0 0.00 0.00 0.00 63 996.6
20260509055235 29 0 0.0 0.0 0.00 0.00 0.00 64 996.5
20260509055135 29 0 0.0 0.0 0.00 0.00 0.00 64 996.5
20260509055035 29 0 0.0 0.0 0.00 0.00 0.00 63 996.5
20260509054935 29 0 0.0 0.0 0.00 0.00 0.00 63 996.5
20260509054835 29 0 0.0 0.0 0.00 0.00 0.00 63 996.5
20260509054735 29 0 0.0 0.0 0.00 0.00 0.00 63 996.4
20260509054635 29 0 0.0 0.0 0.00 0.00 0.00 63 996.4
20260509054535 29 0 0.0 0.0 0.00 0.00 0.00 63 996.4
20260509054435 29 0 0.0 0.0 0.00 0.00 0.00 63 996.4
20260509054336 29 0 0.0 0.0 0.00 0.00 0.00 63 996.4
20260509054236 29 0 0.0 0.0 0.00 0.00 0.00 63 996.4
20260509054136 29 0 0.0 0.0 0.00 0.00 0.00 63 996.4
20260509054036 29 0 0.0 0.0 0.00 0.00 0.00 63 996.4
20260509053936 29 0 0.0 0.0 0.00 0.00 0.00 63 996.4
20260509053836 29 0 0.0 0.0 0.00 0.00 0.00 63 996.4
20260509053736 29 0 0.0 0.0 0.00 0.00 0.00 63 996.4
20260509053636 29 0 0.0 0.0 0.00 0.00 0.00 63 996.3
20260509053536 29 0 0.0 0.0 0.00 0.00 0.00 63 996.3
20260509053436 29 0 0.0 0.0 0.00 0.00 0.00 63 996.2
20260509053336 29 0 0.0 0.0 0.00 0.00 0.00 63 996.2
20260509053236 29 0 0.0 0.0 0.00 0.00 0.00 63 996.2
20260509053136 29 0 0.0 0.0 0.00 0.00 0.00 63 996.2
20260509053036 29 0 0.0 0.0 0.00 0.00 0.00 63 996.2
20260509052936 29 0 0.0 0.0 0.00 0.00 0.00 63 996.2
20260509052837 29 0 0.0 0.0 0.00 0.00 0.00 63 996.2
20260509052737 29 0 0.0 0.0 0.00 0.00 0.00 63 996.1
20260509052637 29 0 0.0 0.0 0.00 0.00 0.00 63 996.1
20260509052537 29 0 0.0 0.0 0.00 0.00 0.00 63 996.1
20260509052437 29 0 0.0 0.0 0.00 0.00 0.00 63 996.0
20260509052337 29 0 0.0 0.0 0.00 0.00 0.00 63 996.0
20260509052237 29 0 0.0 0.0 0.00 0.00 0.00 63 996.0
20260509052137 29 0 0.0 0.0 0.00 0.00 0.00 63 996.0
20260509052037 29 0 0.0 0.0 0.00 0.00 0.00 63 996.0
20260509051937 29 0 0.0 0.0 0.00 0.00 0.00 63 996.0
20260509051837 29 0 0.0 0.0 0.00 0.00 0.00 63 996.0
20260509051737 29 0 0.0 0.0 0.00 0.00 0.00 63 995.9
20260509051637 29 0 0.0 0.0 0.00 0.00 0.00 63 995.9
20260509051537 29 0 0.0 0.0 0.00 0.00 0.00 63 995.9
20260509051438 29 0 0.0 0.0 0.00 0.00 0.00 63 995.9
20260509051338 29 0 0.0 0.0 0.00 0.00 0.00 63 995.8
20260509051238 29 0 0.0 0.0 0.00 0.00 0.00 63 995.9
20260509051138 29 0 0.0 0.0 0.00 0.00 0.00 63 995.8
20260509051038 29 0 0.0 0.0 0.00 0.00 0.00 63 995.8
20260509050938 29 0 0.0 0.0 0.00 0.00 0.00 63 995.8
20260509050838 29 0 0.0 0.0 0.00 0.00 0.00 63 995.8
20260509050738 29 0 0.0 0.0 0.00 0.00 0.00 63 995.9
20260509050638 29 0 0.0 0.0 0.00 0.00 0.00 63 995.8
20260509050538 29 0 0.0 0.0 0.00 0.00 0.00 63 995.8
20260509050438 29 0 0.0 0.0 0.00 0.00 0.00 63 995.8
20260509050338 29 0 0.0 0.0 0.00 0.00 0.00 63 995.8
20260509050238 29 0 0.0 0.0 0.00 0.00 0.00 63 995.8
20260509050138 29 0 0.0 0.0 0.00 0.00 0.00 63 995.8
20260509050038 29 0 0.0 0.0 0.00 0.00 0.00 63 995.8
20260509045939 29 0 0.0 0.0 0.00 0.00 0.00 63 995.8
20260509045839 29 0 0.0 0.0 0.00 0.00 0.00 63 995.8
20260509045739 29 0 0.0 0.0 0.00 0.00 0.00 63 995.8
20260509045639 29 0 0.0 0.0 0.00 0.00 0.00 63 995.8
20260509045539 29 0 0.0 0.0 0.00 0.00 0.00 63 995.8
20260509045439 29 0 0.0 0.0 0.00 0.00 0.00 63 995.8
20260509045339 29 0 0.0 0.0 0.00 0.00 0.00 63 995.9
20260509045239 29 0 0.0 0.0 0.00 0.00 0.00 63 995.9
20260509045139 29 0 0.0 0.0 0.00 0.00 0.00 63 995.8
20260509045039 29 0 0.0 0.0 0.00 0.00 0.00 63 995.9
20260509044939 29 0 0.0 0.0 0.00 0.00 0.00 63 995.9
20260509044839 29 0 0.0 0.0 0.00 0.00 0.00 64 995.8
20260509044739 29 0 0.0 0.0 0.00 0.00 0.00 64 995.8
20260509044639 29 0 0.0 0.0 0.00 0.00 0.00 64 995.8
20260509044539 29 0 0.0 0.0 0.00 0.00 0.00 63 995.8
20260509044439 29 0 0.0 0.0 0.00 0.00 0.00 64 995.8
20260509044340 29 0 0.0 0.0 0.00 0.00 0.00 64 995.9
20260509044240 29 0 0.0 0.0 0.00 0.00 0.00 63 995.8
20260509044140 29 0 0.0 0.0 0.00 0.00 0.00 64 995.8
20260509044040 29 0 0.0 0.0 0.00 0.00 0.00 63 995.8
20260509043940 29 0 0.0 0.0 0.00 0.00 0.00 64 995.8
20260509043840 29 0 0.0 0.0 0.00 0.00 0.00 63 995.8
20260509043740 29 0 0.0 0.0 0.00 0.00 0.00 63 995.8
20260509043640 29 0 0.0 0.0 0.00 0.00 0.00 63 995.8
20260509043540 29 0 0.0 0.0 0.00 0.00 0.00 63 995.7
20260509043440 29 0 0.0 0.0 0.00 0.00 0.00 63 995.8
20260509043340 29 0 0.0 0.0 0.00 0.00 0.00 63 995.7
20260509043240 29 0 0.0 0.0 0.00 0.00 0.00 63 995.7
20260509043140 29 0 0.0 0.0 0.00 0.00 0.00 63 995.7
20260509043040 29 0 0.0 0.0 0.00 0.00 0.00 63 995.7
20260509042940 29 0 0.0 0.0 0.00 0.00 0.00 63 995.7
20260509042840 29 0 0.0 0.0 0.00 0.00 0.00 63 995.7
20260509042741 29 0 0.0 0.0 0.00 0.00 0.00 63 995.6
20260509042641 29 0 0.0 0.0 0.00 0.00 0.00 62 995.6
20260509042541 29 0 0.0 0.0 0.00 0.00 0.00 62 995.6
20260509042441 29 0 0.0 0.0 0.00 0.00 0.00 62 995.7
20260509042341 29 0 0.0 0.0 0.00 0.00 0.00 62 995.7
20260509042241 29 0 0.0 0.0 0.00 0.00 0.00 62 995.7
20260509042141 29 0 0.0 0.0 0.00 0.00 0.00 63 995.6
20260509042041 29 0 0.0 0.0 0.00 0.00 0.00 63 995.7
20260509041941 29 0 0.0 0.0 0.00 0.00 0.00 63 995.7
20260509041841 29 0 0.0 0.0 0.00 0.00 0.00 63 995.6
20260509041741 28 0 0.0 0.0 0.00 0.00 0.00 62 995.7
20260509041641 28 0 0.0 0.0 0.00 0.00 0.00 63 995.6
20260509041541 28 0 0.0 0.0 0.00 0.00 0.00 63 995.6
20260509041441 28 0 0.0 0.0 0.00 0.00 0.00 63 995.7
20260509041342 28 0 0.0 0.0 0.00 0.00 0.00 63 995.6
20260509041242 28 0 0.0 0.0 0.00 0.00 0.00 63 995.6
20260509041142 28 0 0.0 0.0 0.00 0.00 0.00 63 995.5
20260509041042 28 0 0.0 0.0 0.00 0.00 0.00 63 995.5
20260509040942 28 0 0.0 0.0 0.00 0.00 0.00 63 995.5
20260509040842 28 0 0.0 0.0 0.00 0.00 0.00 63 995.5
20260509040742 28 0 0.0 0.0 0.00 0.00 0.00 63 995.5
20260509040642 28 0 0.0 0.0 0.00 0.00 0.00 63 995.5
20260509040542 28 0 0.0 0.0 0.00 0.00 0.00 63 995.5
20260509040442 28 0 0.0 0.0 0.00 0.00 0.00 62 995.4
20260509040342 28 0 0.0 0.0 0.00 0.00 0.00 63 995.5
20260509040242 28 0 0.0 0.0 0.00 0.00 0.00 63 995.4
20260509040142 28 0 0.0 0.0 0.00 0.00 0.00 63 995.4
20260509040043 28 0 0.0 0.0 0.00 0.00 0.00 63 995.4
20260509035943 28 0 0.0 0.0 0.00 0.00 0.00 63 995.3
20260509035843 28 0 0.0 0.0 0.00 0.00 0.00 63 995.3
20260509035743 28 0 0.0 0.0 0.00 0.00 0.00 63 995.3
20260509035643 28 0 0.0 0.0 0.00 0.00 0.00 63 995.3
20260509035543 28 0 0.0 0.0 0.00 0.00 0.00 62 995.3
20260509035443 28 0 0.0 0.0 0.00 0.00 0.00 63 995.4
20260509035343 28 0 0.0 0.0 0.00 0.00 0.00 62 995.4
20260509035243 28 0 0.0 0.0 0.00 0.00 0.00 62 995.4
20260509035143 28 0 0.0 0.0 0.00 0.00 0.00 62 995.3
20260509035043 28 0 0.0 0.0 0.00 0.00 0.00 62 995.3
20260509034943 28 0 0.0 0.0 0.00 0.00 0.00 63 995.3
20260509034844 28 0 0.0 0.0 0.00 0.00 0.00 62 995.3
20260509034744 28 0 0.0 0.0 0.00 0.00 0.00 62 995.3
20260509034644 28 0 0.0 0.0 0.00 0.00 0.00 63 995.3
20260509034544 28 0 0.0 0.0 0.00 0.00 0.00 63 995.2
20260509034444 28 0 0.0 0.0 0.00 0.00 0.00 62 995.2
20260509034344 28 0 0.0 0.0 0.00 0.00 0.00 62 995.2
20260509034244 28 0 0.0 0.0 0.00 0.00 0.00 62 995.3
20260509034144 28 0 0.0 0.0 0.00 0.00 0.00 62 995.3
20260509034044 28 0 0.0 0.0 0.00 0.00 0.00 62 995.2
20260509033944 28 0 0.0 0.0 0.00 0.00 0.00 62 995.3
20260509033844 28 0 0.0 0.0 0.00 0.00 0.00 62 995.2
20260509033744 28 0 0.0 0.0 0.00 0.00 0.00 62 995.2
20260509033645 28 0 0.0 0.0 0.00 0.00 0.00 62 995.2
20260509033545 28 0 0.0 0.0 0.00 0.00 0.00 62 995.2
20260509033445 28 0 0.0 0.0 0.00 0.00 0.00 62 995.3
20260509033345 28 0 0.0 0.0 0.00 0.00 0.00 62 995.2
20260509033245 28 0 0.0 0.0 0.00 0.00 0.00 62 995.2
20260509033145 28 0 0.0 0.0 0.00 0.00 0.00 62 995.2
20260509033045 28 0 0.0 0.0 0.00 0.00 0.00 62 995.2
20260509032945 28 0 0.0 0.0 0.00 0.00 0.00 61 995.2
20260509032845 28 0 0.0 0.0 0.00 0.00 0.00 62 995.2
20260509032745 28 0 0.0 0.0 0.00 0.00 0.00 61 995.1
20260509032645 28 0 0.0 0.0 0.00 0.00 0.00 62 995.2
20260509032546 28 0 0.0 0.0 0.00 0.00 0.00 62 995.2
20260509032446 28 0 0.0 0.0 0.00 0.00 0.00 62 995.2
20260509032346 28 0 0.0 0.0 0.00 0.00 0.00 62 995.2
20260509032246 28 0 0.0 0.0 0.00 0.00 0.00 62 995.2
20260509032146 28 0 0.0 0.0 0.00 0.00 0.00 62 995.1
20260509032046 28 0 0.0 0.0 0.00 0.00 0.00 62 995.1
20260509031946 28 0 0.0 0.0 0.00 0.00 0.00 62 995.2
20260509031846 28 0 0.0 0.0 0.00 0.00 0.00 62 995.2
20260509031746 28 0 0.0 0.0 0.00 0.00 0.00 62 995.2
20260509031646 28 0 0.0 0.0 0.00 0.00 0.00 62 995.2
20260509031546 28 0 0.0 0.0 0.00 0.00 0.00 62 995.2
20260509031446 28 0 0.0 0.0 0.00 0.00 0.00 62 995.2
20260509031347 28 0 0.0 0.0 0.00 0.00 0.00 62 995.2
20260509031247 28 0 0.0 0.0 0.00 0.00 0.00 62 995.1
20260509031147 28 0 0.0 0.0 0.00 0.00 0.00 62 995.1
20260509031047 28 0 0.0 0.0 0.00 0.00 0.00 62 995.2
20260509030947 28 0 0.0 0.0 0.00 0.00 0.00 62 995.2
20260509030847 28 0 0.0 0.0 0.00 0.00 0.00 62 995.2
20260509030747 28 0 0.0 0.0 0.00 0.00 0.00 62 995.1
20260509030647 28 0 0.0 0.0 0.00 0.00 0.00 62 995.1
20260509030547 28 0 0.0 0.0 0.00 0.00 0.00 62 995.1
20260509030447 28 0 0.0 0.0 0.00 0.00 0.00 62 995.2
20260509030347 28 0 0.0 0.0 0.00 0.00 0.00 62 995.1
20260509030247 28 0 0.0 0.0 0.00 0.00 0.00 62 995.1
20260509030148 28 0 0.0 0.0 0.00 0.00 0.00 62 995.2
20260509030048 28 0 0.0 0.0 0.00 0.00 0.00 62 995.2
20260509025948 28 0 0.0 0.0 0.00 0.00 0.00 62 995.2
20260509025848 28 0 0.0 0.0 0.00 0.00 0.00 62 995.2
20260509025748 28 0 0.0 0.0 0.00 0.00 0.00 62 995.1
20260509025648 28 0 0.0 0.0 0.00 0.00 0.00 62 995.1
20260509025548 28 0 0.0 0.0 0.00 0.00 0.00 62 995.1
20260509025448 28 0 0.0 0.0 0.00 0.00 0.00 62 995.1
20260509025348 28 0 0.0 0.0 0.00 0.00 0.00 62 995.2
20260509025248 28 0 0.0 0.0 0.00 0.00 0.00 62 995.1
20260509025148 28 0 0.0 0.0 0.00 0.00 0.00 62 995.1
20260509025048 28 0 0.0 0.0 0.00 0.00 0.00 62 995.1
20260509024948 28 0 0.0 0.0 0.00 0.00 0.00 62 995.2
20260509024849 28 0 0.0 0.0 0.00 0.00 0.00 62 995.1
20260509024749 28 0 0.0 0.0 0.00 0.00 0.00 62 995.2
20260509024649 28 0 0.0 0.0 0.00 0.00 0.00 62 995.2
20260509024549 28 0 0.0 0.0 0.00 0.00 0.00 62 995.2
20260509024449 28 0 0.0 0.0 0.00 0.00 0.00 62 995.2
20260509024349 28 0 0.0 0.0 0.00 0.00 0.00 62 995.2
20260509024249 28 0 0.0 0.0 0.00 0.00 0.00 62 995.1
20260509024149 28 0 0.0 0.0 0.00 0.00 0.00 62 995.1
20260509024049 28 0 0.0 0.0 0.00 0.00 0.00 62 995.2
20260509023949 28 0 0.0 0.0 0.00 0.00 0.00 62 995.2
20260509023849 28 0 0.0 0.0 0.00 0.00 0.00 62 995.2
20260509023750 28 0 0.0 0.0 0.00 0.00 0.00 62 995.1
20260509023649 28 0 0.0 0.0 0.00 0.00 0.00 63 995.1
20260509023549 28 0 0.0 0.0 0.00 0.00 0.00 63 995.1
20260509023450 28 0 0.0 0.0 0.00 0.00 0.00 63 995.1
20260509023350 28 0 0.0 0.0 0.00 0.00 0.00 63 995.1
20260509023250 28 0 0.0 0.0 0.00 0.00 0.00 63 995.1
20260509023150 28 0 0.0 0.0 0.00 0.00 0.00 63 995.1
20260509023050 28 0 0.0 0.0 0.00 0.00 0.00 63 995.1
20260509022950 28 0 0.0 0.0 0.00 0.00 0.00 63 995.1
20260509022850 28 0 0.0 0.0 0.00 0.00 0.00 63 995.0
20260509022750 28 0 0.0 0.0 0.00 0.00 0.00 62 995.1
20260509022650 28 0 0.0 0.0 0.00 0.00 0.00 62 995.1
20260509022550 28 0 0.0 0.0 0.00 0.00 0.00 63 995.2
20260509022450 28 0 0.0 0.0 0.00 0.00 0.00 62 995.2
20260509022350 28 0 0.0 0.0 0.00 0.00 0.00 62 995.3
20260509022250 28 0 0.0 0.0 0.00 0.00 0.00 63 995.2
20260509022150 28 0 0.0 0.0 0.00 0.00 0.00 63 995.2
20260509022050 28 0 0.0 0.0 0.00 0.00 0.00 63 995.2
20260509021951 28 0 0.0 0.0 0.00 0.00 0.00 63 995.2
20260509021851 28 0 0.0 0.0 0.00 0.00 0.00 63 995.2
20260509021751 28 0 0.0 0.0 0.00 0.00 0.00 63 995.1
20260509021651 28 0 0.0 0.0 0.00 0.00 0.00 63 995.1
20260509021551 28 0 0.0 0.0 0.00 0.00 0.00 63 995.1
20260509021451 28 0 0.0 0.0 0.00 0.00 0.00 63 995.1
20260509021351 28 0 0.0 0.0 0.00 0.00 0.00 63 995.1
20260509021251 28 0 0.0 0.0 0.00 0.00 0.00 63 995.2
20260509021151 28 0 0.0 0.0 0.00 0.00 0.00 63 995.2
20260509021051 28 0 0.0 0.0 0.00 0.00 0.00 63 995.3
20260509020951 28 0 0.0 0.0 0.00 0.00 0.00 62 995.3
20260509020851 28 0 0.0 0.0 0.00 0.00 0.00 63 995.3
20260509020751 28 0 0.0 0.0 0.00 0.00 0.00 62 995.3
20260509020652 28 0 0.0 0.0 0.00 0.00 0.00 63 995.3
20260509020552 28 0 0.0 0.0 0.00 0.00 0.00 62 995.2
20260509020452 28 0 0.0 0.0 0.00 0.00 0.00 62 995.3
20260509020352 28 0 0.0 0.0 0.00 0.00 0.00 62 995.3
20260509020252 28 0 0.0 0.0 0.00 0.00 0.00 63 995.3
20260509020152 28 0 0.0 0.0 0.00 0.00 0.00 63 995.3
20260509020052 28 0 0.0 0.0 0.00 0.00 0.00 63 995.4
20260509015952 28 0 0.0 0.0 0.00 0.00 0.00 63 995.4
20260509015852 28 0 0.0 0.0 0.00 0.00 0.00 63 995.4
20260509015752 28 0 0.0 0.0 0.00 0.00 0.00 63 995.5
20260509015652 28 0 0.0 0.0 0.00 0.00 0.00 63 995.5
20260509015552 28 0 0.0 0.0 0.00 0.00 0.00 63 995.5
20260509015452 28 0 0.0 0.0 0.00 0.00 0.00 62 995.5
20260509015352 28 0 0.0 0.0 0.00 0.00 0.00 63 995.6
20260509015252 28 0 0.0 0.0 0.00 0.00 0.00 63 995.6
20260509015152 28 0 0.0 0.0 0.00 0.00 0.00 63 995.6
20260509015053 28 0 0.0 0.0 0.00 0.00 0.00 63 995.5
20260509014953 28 0 0.0 0.0 0.00 0.00 0.00 63 995.6
20260509014853 28 0 0.0 0.0 0.00 0.00 0.00 63 995.6
20260509014753 28 0 0.0 0.0 0.00 0.00 0.00 63 995.7
20260509014653 28 0 0.0 0.0 0.00 0.00 0.00 63 995.7
20260509014553 28 0 0.0 0.0 0.00 0.00 0.00 63 995.7
20260509014453 28 0 0.0 0.0 0.00 0.00 0.00 63 995.7
20260509014353 28 0 0.0 0.0 0.00 0.00 0.00 63 995.6
20260509014253 28 0 0.0 0.0 0.00 0.00 0.00 63 995.7
20260509014153 28 0 0.0 0.0 0.00 0.00 0.00 63 995.7
20260509014053 28 0 0.0 0.0 0.00 0.00 0.00 63 995.8
20260509013953 28 0 0.0 0.0 0.00 0.00 0.00 63 995.7
20260509013853 28 0 0.0 0.0 0.00 0.00 0.00 63 995.8
20260509013753 28 0 0.0 0.0 0.00 0.00 0.00 63 995.8
20260509013654 28 0 0.0 0.0 0.00 0.00 0.00 63 995.8
20260509013554 28 0 0.0 0.0 0.00 0.00 0.00 63 995.8
20260509013454 28 0 0.0 0.0 0.00 0.00 0.00 63 995.8
20260509013354 28 0 0.0 0.0 0.00 0.00 0.00 63 995.8
20260509013254 28 0 0.0 0.0 0.00 0.00 0.00 63 995.9
20260509013154 28 0 0.0 0.0 0.00 0.00 0.00 64 996.0
20260509013054 28 0 0.0 0.0 0.00 0.00 0.00 64 996.0
20260509012954 28 0 0.0 0.0 0.00 0.00 0.00 64 996.0
20260509012854 28 0 0.0 0.0 0.00 0.00 0.00 64 996.0
20260509012754 28 0 0.0 0.0 0.00 0.00 0.00 64 996.1
20260509012654 28 0 0.0 0.0 0.00 0.00 0.00 63 996.1
20260509012554 28 0 0.0 0.0 0.00 0.00 0.00 63 996.1
20260509012454 28 0 0.0 0.0 0.00 0.00 0.00 63 996.1
20260509012355 28 0 0.0 0.0 0.00 0.00 0.00 63 996.1
20260509012255 28 0 0.0 0.0 0.00 0.00 0.00 62 996.1
20260509012155 28 0 0.0 0.0 0.00 0.00 0.00 62 996.0
20260509012055 28 0 0.0 0.0 0.00 0.00 0.00 62 996.0
20260509011955 28 0 0.0 0.0 0.00 0.00 0.00 62 996.0
20260509011855 28 0 0.0 0.0 0.00 0.00 0.00 62 996.1
20260509011755 28 0 0.0 0.0 0.00 0.00 0.00 62 996.1
20260509011655 28 0 0.0 0.0 0.00 0.00 0.00 62 996.1
20260509011555 28 0 0.0 0.0 0.00 0.00 0.00 62 996.1
20260509011455 28 0 0.0 0.0 0.00 0.00 0.00 62 996.1
20260509011356 28 0 0.0 0.0 0.00 0.00 0.00 63 996.0
20260509011255 28 0 0.0 0.0 0.00 0.00 0.00 63 996.0
20260509011155 28 0 0.0 0.0 0.00 0.00 0.00 63 996.1
20260509011056 28 0 0.0 0.0 0.00 0.00 0.00 63 996.1
20260509010956 28 0 0.0 0.0 0.00 0.00 0.00 63 996.2
20260509010856 28 0 0.0 0.0 0.00 0.00 0.00 63 996.2
20260509010756 28 0 0.0 0.0 0.00 0.00 0.00 63 996.2
20260509010656 28 0 0.0 0.0 0.00 0.00 0.00 63 996.3
20260509010556 28 0 0.0 0.0 0.00 0.00 0.00 63 996.2